| time (UTC) | temp F | wind direction | speed MPH | gust MPH | rain 1hr in | rain 24hr in | rain mn in | humidity % | barometer mb |
| 20260505153307 | 53 | 45 | 8.0 | 0.0 | 0.00 | 0.00 | 0.00 | 75 | 1056.5 |
| 20260505153154 | 53 | 22 | 2.0 | 0.0 | 0.00 | 0.00 | 0.00 | 74 | 1056.5 |
| 20260505153040 | 53 | 45 | 10.0 | 0.0 | 0.00 | 0.00 | 0.00 | 74 | 1056.6 |
| 20260505152918 | 53 | 45 | 9.0 | 0.0 | 0.00 | 0.00 | 0.00 | 74 | 1056.5 |
| 20260505152807 | 53 | 22 | 13.0 | 0.0 | 0.00 | 0.00 | 0.00 | 74 | 1056.5 |
| 20260505152701 | 53 | 45 | 9.0 | 0.0 | 0.00 | 0.00 | 0.00 | 74 | 1056.5 |
| 20260505152539 | 53 | 22 | 7.0 | 0.0 | 0.00 | 0.00 | 0.00 | 74 | 1056.6 |
| 20260505152418 | 53 | 0 | 6.0 | 0.0 | 0.00 | 0.00 | 0.00 | 73 | 1056.6 |
| 20260505152251 | 53 | 22 | 7.0 | 0.0 | 0.00 | 0.00 | 0.00 | 74 | 1056.6 |
| 20260505152144 | 53 | 0 | 12.0 | 0.0 | 0.00 | 0.00 | 0.00 | 74 | 1056.6 |
| 20260505152031 | 53 | 0 | 10.0 | 0.0 | 0.00 | 0.00 | 0.00 | 74 | 1056.7 |
| 20260505151925 | 53 | 67 | 3.0 | 0.0 | 0.00 | 0.00 | 0.00 | 74 | 1056.6 |
| 20260505151813 | 53 | 22 | 3.0 | 0.0 | 0.00 | 0.00 | 0.00 | 73 | 1056.6 |
| 20260505151700 | 53 | 22 | 6.0 | 0.0 | 0.00 | 0.00 | 0.00 | 73 | 1056.7 |
| 20260505151546 | 54 | 0 | 14.0 | 0.0 | 0.00 | 0.00 | 0.00 | 73 | 1056.6 |
| 20260505151433 | 54 | 0 | 11.0 | 0.0 | 0.00 | 0.00 | 0.00 | 74 | 1056.7 |
| 20260505151314 | 54 | 0 | 2.0 | 0.0 | 0.00 | 0.00 | 0.00 | 74 | 1056.7 |
| 20260505151159 | 54 | 337 | 6.0 | 0.0 | 0.00 | 0.00 | 0.00 | 74 | 1056.7 |
| 20260505151038 | 54 | 45 | 7.0 | 0.0 | 0.00 | 0.00 | 0.00 | 74 | 1056.7 |
| 20260505150919 | 54 | 0 | 6.0 | 0.0 | 0.00 | 0.00 | 0.00 | 74 | 1056.7 |
| 20260505150812 | 54 | 0 | 11.0 | 0.0 | 0.00 | 0.00 | 0.00 | 73 | 1056.6 |
| 20260505150659 | 54 | 0 | 17.0 | 0.0 | 0.00 | 0.00 | 0.00 | 73 | 1056.6 |
| 20260505150556 | 54 | 22 | 6.0 | 0.0 | 0.00 | 0.00 | 0.00 | 73 | 1056.7 |
| 20260505150446 | 54 | 337 | 8.0 | 0.0 | 0.00 | 0.00 | 0.00 | 73 | 1056.7 |
| 20260505150319 | 54 | 22 | 6.0 | 0.0 | 0.00 | 0.00 | 0.00 | 72 | 1056.6 |
| 20260505150158 | 54 | 0 | 16.0 | 0.0 | 0.00 | 0.00 | 0.00 | 73 | 1056.7 |
| 20260505140625 | 56 | 90 | 6.0 | 0.0 | 0.00 | 0.00 | 0.00 | 71 | 1056.9 |
| 20260505140512 | 56 | 22 | 3.0 | 0.0 | 0.00 | 0.00 | 0.00 | 70 | 1056.9 |
| 20260505140406 | 56 | 22 | 4.0 | 0.0 | 0.00 | 0.00 | 0.00 | 70 | 1056.9 |
| 20260505140301 | 56 | 0 | 6.0 | 0.0 | 0.00 | 0.00 | 0.00 | 70 | 1057.0 |
| 20260505140140 | 56 | 22 | 7.0 | 0.0 | 0.00 | 0.00 | 0.00 | 70 | 1056.9 |
| 20260505130304 | 55 | 67 | 2.0 | 0.0 | 0.00 | 0.00 | 0.00 | 72 | 1057.2 |
| 20260505130150 | 55 | 22 | 5.0 | 0.0 | 0.00 | 0.00 | 0.00 | 73 | 1057.2 |
| 20260505125004 | 54 | 0 | 5.0 | 0.0 | 0.00 | 0.00 | 0.00 | 75 | 1057.3 |
| 20260505124853 | 53 | 22 | 4.0 | 0.0 | 0.00 | 0.00 | 0.00 | 75 | 1057.2 |
| 20260505124746 | 53 | 45 | 6.0 | 0.0 | 0.00 | 0.00 | 0.00 | 75 | 1057.3 |
| 20260505124633 | 53 | 45 | 2.0 | 0.0 | 0.00 | 0.00 | 0.00 | 75 | 1057.3 |
| 20260505124503 | 53 | 22 | 6.0 | 0.0 | 0.00 | 0.00 | 0.00 | 75 | 1057.3 |
| 20260505124351 | 53 | 22 | 7.0 | 0.0 | 0.00 | 0.00 | 0.00 | 76 | 1057.3 |
| 20260505124245 | 53 | 22 | 5.0 | 0.0 | 0.00 | 0.00 | 0.00 | 76 | 1057.3 |
| 20260505124124 | 53 | 22 | 3.0 | 0.0 | 0.00 | 0.00 | 0.00 | 75 | 1057.3 |
| 20260505124014 | 53 | 22 | 8.0 | 0.0 | 0.00 | 0.00 | 0.00 | 76 | 1057.3 |
| 20260505123906 | 53 | 22 | 3.0 | 0.0 | 0.00 | 0.00 | 0.00 | 76 | 1057.3 |
| 20260505123753 | 53 | 45 | 5.0 | 0.0 | 0.00 | 0.00 | 0.00 | 75 | 1057.3 |
| 20260505123647 | 53 | 0 | 5.0 | 0.0 | 0.00 | 0.00 | 0.00 | 76 | 1057.3 |
| 20260505123517 | 53 | 22 | 5.0 | 0.0 | 0.00 | 0.00 | 0.00 | 76 | 1057.3 |
| 20260505123403 | 53 | 45 | 5.0 | 0.0 | 0.00 | 0.00 | 0.00 | 75 | 1057.3 |
| 20260505123257 | 53 | 22 | 4.0 | 0.0 | 0.00 | 0.00 | 0.00 | 75 | 1057.4 |
| 20260505123152 | 53 | 0 | 10.0 | 0.0 | 0.00 | 0.00 | 0.00 | 74 | 1057.4 |
| 20260505123047 | 53 | 45 | 11.0 | 0.0 | 0.00 | 0.00 | 0.00 | 74 | 1057.4 |
| 20260505122942 | 53 | 45 | 12.0 | 0.0 | 0.00 | 0.00 | 0.00 | 75 | 1057.4 |
| 20260505122836 | 53 | 0 | 6.0 | 0.0 | 0.00 | 0.00 | 0.00 | 74 | 1057.4 |
| 20260505122726 | 53 | 45 | 6.0 | 0.0 | 0.00 | 0.00 | 0.00 | 74 | 1057.4 |
| 20260505122620 | 53 | 45 | 12.0 | 0.0 | 0.00 | 0.00 | 0.00 | 74 | 1057.4 |
| 20260505122514 | 53 | 90 | 6.0 | 0.0 | 0.00 | 0.00 | 0.00 | 74 | 1057.4 |
| 20260505122352 | 53 | 22 | 11.0 | 0.0 | 0.00 | 0.00 | 0.00 | 74 | 1057.5 |
| 20260505122239 | 53 | 0 | 8.0 | 0.0 | 0.00 | 0.00 | 0.00 | 75 | 1057.4 |
| 20260505122117 | 53 | 45 | 4.0 | 0.0 | 0.00 | 0.00 | 0.00 | 74 | 1057.4 |
| 20260505122005 | 53 | 45 | 3.0 | 0.0 | 0.00 | 0.00 | 0.00 | 74 | 1057.4 |
| 20260505121851 | 53 | 22 | 7.0 | 0.0 | 0.00 | 0.00 | 0.00 | 74 | 1057.4 |
| 20260505121738 | 53 | 45 | 6.0 | 0.0 | 0.00 | 0.00 | 0.00 | 74 | 1057.4 |
| 20260505121619 | 53 | 0 | 3.0 | 0.0 | 0.00 | 0.00 | 0.00 | 74 | 1057.4 |
| 20260505121512 | 53 | 0 | 6.0 | 0.0 | 0.00 | 0.00 | 0.00 | 74 | 1057.3 |
| 20260505121359 | 53 | 45 | 8.0 | 0.0 | 0.00 | 0.00 | 0.00 | 74 | 1057.4 |
| 20260505121245 | 53 | 0 | 5.0 | 0.0 | 0.00 | 0.00 | 0.00 | 73 | 1057.3 |
| 20260505121124 | 53 | 45 | 3.0 | 0.0 | 0.00 | 0.00 | 0.00 | 73 | 1057.4 |
| 20260505121003 | 53 | 45 | 7.0 | 0.0 | 0.00 | 0.00 | 0.00 | 73 | 1057.4 |
| 20260505120852 | 53 | 22 | 9.0 | 0.0 | 0.00 | 0.00 | 0.00 | 73 | 1057.4 |
| 20260505120747 | 53 | 45 | 7.0 | 0.0 | 0.00 | 0.00 | 0.00 | 72 | 1057.4 |
| 20260505120642 | 53 | 45 | 8.0 | 0.0 | 0.00 | 0.00 | 0.00 | 73 | 1057.3 |
| 20260505120520 | 54 | 22 | 6.0 | 0.0 | 0.00 | 0.00 | 0.00 | 72 | 1057.4 |
| 20260505120414 | 54 | 45 | 4.0 | 0.0 | 0.00 | 0.00 | 0.00 | 71 | 1057.3 |
| 20260505120308 | 54 | 45 | 5.0 | 0.0 | 0.00 | 0.00 | 0.00 | 71 | 1057.3 |
| 20260505120201 | 54 | 337 | 4.0 | 0.0 | 0.00 | 0.00 | 0.00 | 71 | 1057.3 |
| 20260505120048 | 54 | 67 | 11.0 | 0.0 | 0.00 | 0.00 | 0.00 | 71 | 1057.4 |
| 20260505115935 | 54 | 0 | 5.0 | 0.0 | 0.00 | 0.00 | 0.00 | 71 | 1057.4 |
| 20260505115805 | 54 | 45 | 11.0 | 0.0 | 0.00 | 0.00 | 0.00 | 70 | 1057.4 |
| 20260505115644 | 55 | 0 | 6.0 | 0.0 | 0.00 | 0.00 | 0.00 | 69 | 1057.4 |
| 20260505115532 | 55 | 45 | 10.0 | 0.0 | 0.00 | 0.00 | 0.00 | 69 | 1057.3 |
| 20260505115426 | 55 | 22 | 7.0 | 0.0 | 0.00 | 0.00 | 0.00 | 70 | 1057.4 |
| 20260505115313 | 55 | 22 | 3.0 | 0.0 | 0.00 | 0.00 | 0.00 | 70 | 1057.4 |
| 20260505115201 | 55 | 45 | 5.0 | 0.0 | 0.00 | 0.00 | 0.00 | 70 | 1057.4 |
| 20260505115054 | 55 | 22 | 9.0 | 0.0 | 0.00 | 0.00 | 0.00 | 70 | 1057.3 |
| 20260505114934 | 55 | 22 | 3.0 | 0.0 | 0.00 | 0.00 | 0.00 | 69 | 1057.4 |
| 20260505114829 | 55 | 22 | 8.0 | 0.0 | 0.00 | 0.00 | 0.00 | 69 | 1057.4 |
| 20260505114707 | 55 | 67 | 7.0 | 0.0 | 0.00 | 0.00 | 0.00 | 69 | 1057.3 |
| 20260505114542 | 55 | 45 | 6.0 | 0.0 | 0.00 | 0.00 | 0.00 | 69 | 1057.3 |
| 20260505114433 | 55 | 0 | 6.0 | 0.0 | 0.00 | 0.00 | 0.00 | 69 | 1057.3 |
| 20260505114312 | 55 | 337 | 6.0 | 0.0 | 0.00 | 0.00 | 0.00 | 69 | 1057.3 |
| 20260505114159 | 55 | 45 | 10.0 | 0.0 | 0.00 | 0.00 | 0.00 | 68 | 1057.3 |
| 20260505114038 | 55 | 0 | 6.0 | 0.0 | 0.00 | 0.00 | 0.00 | 68 | 1057.3 |
| 20260505113933 | 55 | 22 | 9.0 | 0.0 | 0.00 | 0.00 | 0.00 | 68 | 1057.3 |
| 20260505113828 | 55 | 22 | 7.0 | 0.0 | 0.00 | 0.00 | 0.00 | 69 | 1057.3 |
| 20260505113714 | 55 | 45 | 5.0 | 0.0 | 0.00 | 0.00 | 0.00 | 69 | 1057.3 |
| 20260505113601 | 55 | 45 | 12.0 | 0.0 | 0.00 | 0.00 | 0.00 | 69 | 1057.3 |
| 20260505113440 | 55 | 22 | 4.0 | 0.0 | 0.00 | 0.00 | 0.00 | 71 | 1057.3 |
| 20260505113321 | 55 | 45 | 6.0 | 0.0 | 0.00 | 0.00 | 0.00 | 71 | 1057.3 |
| 20260505113214 | 55 | 22 | 6.0 | 0.0 | 0.00 | 0.00 | 0.00 | 71 | 1057.3 |
| 20260505113109 | 55 | 67 | 7.0 | 0.0 | 0.00 | 0.00 | 0.00 | 71 | 1057.3 |
| 20260505113003 | 54 | 22 | 2.0 | 0.0 | 0.00 | 0.00 | 0.00 | 70 | 1057.3 |
| 20260505112835 | 54 | 45 | 6.0 | 0.0 | 0.00 | 0.00 | 0.00 | 70 | 1057.3 |
| 20260505112730 | 54 | 45 | 5.0 | 0.0 | 0.00 | 0.00 | 0.00 | 70 | 1057.3 |
| 20260505112624 | 54 | 67 | 9.0 | 0.0 | 0.00 | 0.00 | 0.00 | 69 | 1057.3 |
| 20260505112511 | 54 | 67 | 15.0 | 0.0 | 0.00 | 0.00 | 0.00 | 71 | 1057.3 |
| 20260505112406 | 54 | 45 | 3.0 | 0.0 | 0.00 | 0.00 | 0.00 | 70 | 1057.3 |
| 20260505112252 | 54 | 112 | 6.0 | 0.0 | 0.00 | 0.00 | 0.00 | 71 | 1057.3 |
| 20260505112140 | 54 | 0 | 5.0 | 0.0 | 0.00 | 0.00 | 0.00 | 71 | 1057.3 |
| 20260505112027 | 54 | 22 | 8.0 | 0.0 | 0.00 | 0.00 | 0.00 | 71 | 1057.3 |
| 20260505111912 | 54 | 0 | 4.0 | 0.0 | 0.00 | 0.00 | 0.00 | 71 | 1057.3 |
| 20260505111759 | 54 | 90 | 4.0 | 0.0 | 0.00 | 0.00 | 0.00 | 71 | 1057.4 |
| 20260505111645 | 54 | 0 | 5.0 | 0.0 | 0.00 | 0.00 | 0.00 | 71 | 1057.3 |
| 20260505111533 | 54 | 90 | 7.0 | 0.0 | 0.00 | 0.00 | 0.00 | 71 | 1057.4 |
| 20260505111426 | 54 | 22 | 6.0 | 0.0 | 0.00 | 0.00 | 0.00 | 72 | 1057.4 |
| 20260505111321 | 54 | 22 | 7.0 | 0.0 | 0.00 | 0.00 | 0.00 | 72 | 1057.4 |
| 20260505111208 | 53 | 45 | 7.0 | 0.0 | 0.00 | 0.00 | 0.00 | 73 | 1057.3 |
| 20260505111102 | 53 | 337 | 4.0 | 0.0 | 0.00 | 0.00 | 0.00 | 73 | 1057.3 |
| 20260505110958 | 53 | 22 | 7.0 | 0.0 | 0.00 | 0.00 | 0.00 | 73 | 1057.3 |
| 20260505110852 | 53 | 22 | 5.0 | 0.0 | 0.00 | 0.00 | 0.00 | 73 | 1057.3 |
| 20260505110732 | 53 | 22 | 4.0 | 0.0 | 0.00 | 0.00 | 0.00 | 73 | 1057.3 |
| 20260505110626 | 53 | 0 | 4.0 | 0.0 | 0.00 | 0.00 | 0.00 | 73 | 1057.2 |
| 20260505110505 | 53 | 45 | 5.0 | 0.0 | 0.00 | 0.00 | 0.00 | 73 | 1057.2 |
| 20260505110335 | 53 | 22 | 3.0 | 0.0 | 0.00 | 0.00 | 0.00 | 74 | 1057.3 |
| 20260505110223 | 53 | 45 | 3.0 | 0.0 | 0.00 | 0.00 | 0.00 | 73 | 1057.3 |
| 20260505110110 | 53 | 67 | 6.0 | 0.0 | 0.00 | 0.00 | 0.00 | 73 | 1057.3 |
| 20260505102153 | 52 | 22 | 3.0 | 0.0 | 0.00 | 0.00 | 0.00 | 74 | 1057.3 |
| 20260505102040 | 52 | 22 | 4.0 | 0.0 | 0.00 | 0.00 | 0.00 | 74 | 1057.5 |
| 20260505101926 | 52 | 45 | 7.0 | 0.0 | 0.00 | 0.00 | 0.00 | 73 | 1057.4 |
| 20260505101807 | 52 | 22 | 12.0 | 0.0 | 0.00 | 0.00 | 0.00 | 73 | 1057.4 |
| 20260505101701 | 52 | 22 | 6.0 | 0.0 | 0.00 | 0.00 | 0.00 | 73 | 1057.5 |
| 20260505101548 | 52 | 22 | 6.0 | 0.0 | 0.00 | 0.00 | 0.00 | 73 | 1057.4 |
| 20260505101442 | 52 | 90 | 1.0 | 0.0 | 0.00 | 0.00 | 0.00 | 73 | 1057.5 |
| 20260505101337 | 52 | 22 | 6.0 | 0.0 | 0.00 | 0.00 | 0.00 | 73 | 1057.5 |
| 20260505101208 | 52 | 0 | 6.0 | 0.0 | 0.00 | 0.00 | 0.00 | 74 | 1057.5 |
| 20260505101054 | 52 | 90 | 5.0 | 0.0 | 0.00 | 0.00 | 0.00 | 74 | 1057.5 |
| 20260505100934 | 52 | 67 | 6.0 | 0.0 | 0.00 | 0.00 | 0.00 | 74 | 1057.5 |
| 20260505100820 | 52 | 22 | 3.0 | 0.0 | 0.00 | 0.00 | 0.00 | 74 | 1057.5 |
| 20260505100707 | 52 | 45 | 7.0 | 0.0 | 0.00 | 0.00 | 0.00 | 74 | 1057.5 |
| 20260505100603 | 52 | 22 | 11.0 | 0.0 | 0.00 | 0.00 | 0.00 | 75 | 1057.5 |
| 20260505100458 | 52 | 22 | 6.0 | 0.0 | 0.00 | 0.00 | 0.00 | 74 | 1057.5 |
| 20260505100338 | 52 | 22 | 2.0 | 0.0 | 0.00 | 0.00 | 0.00 | 74 | 1057.6 |
| 20260505100223 | 52 | 67 | 7.0 | 0.0 | 0.00 | 0.00 | 0.00 | 74 | 1057.6 |
| 20260505100110 | 52 | 22 | 7.0 | 0.0 | 0.00 | 0.00 | 0.00 | 74 | 1057.5 |
| 20260505100005 | 52 | 22 | 9.0 | 0.0 | 0.00 | 0.00 | 0.00 | 75 | 1057.7 |
| 20260505095846 | 52 | 22 | 3.0 | 0.0 | 0.00 | 0.00 | 0.00 | 75 | 1057.7 |
| 20260505095741 | 52 | 22 | 2.0 | 0.0 | 0.00 | 0.00 | 0.00 | 75 | 1057.8 |
| 20260505095636 | 52 | 22 | 2.0 | 0.0 | 0.00 | 0.00 | 0.00 | 75 | 1057.7 |
| 20260505095521 | 52 | 22 | 4.0 | 0.0 | 0.00 | 0.00 | 0.00 | 74 | 1057.8 |
| 20260505095407 | 52 | 67 | 5.0 | 0.0 | 0.00 | 0.00 | 0.00 | 74 | 1057.8 |
| 20260505095247 | 52 | 0 | 9.0 | 0.0 | 0.00 | 0.00 | 0.00 | 74 | 1057.9 |
| 20260505095141 | 52 | 22 | 6.0 | 0.0 | 0.00 | 0.00 | 0.00 | 74 | 1057.8 |
| 20260505095028 | 52 | 22 | 5.0 | 0.0 | 0.00 | 0.00 | 0.00 | 75 | 1057.9 |
| 20260505094923 | 52 | 22 | 2.0 | 0.0 | 0.00 | 0.00 | 0.00 | 75 | 1057.9 |
| 20260505094810 | 52 | 90 | 5.0 | 0.0 | 0.00 | 0.00 | 0.00 | 75 | 1057.9 |
| 20260505094705 | 52 | 45 | 4.0 | 0.0 | 0.00 | 0.00 | 0.00 | 75 | 1057.9 |
| 20260505094552 | 52 | 0 | 7.0 | 0.0 | 0.00 | 0.00 | 0.00 | 75 | 1057.9 |
| 20260505094441 | 52 | 67 | 4.0 | 0.0 | 0.00 | 0.00 | 0.00 | 75 | 1058.0 |
| 20260505094334 | 52 | 22 | 4.0 | 0.0 | 0.00 | 0.00 | 0.00 | 75 | 1057.9 |
| 20260505094221 | 52 | 45 | 8.0 | 0.0 | 0.00 | 0.00 | 0.00 | 74 | 1058.0 |
| 20260505094107 | 52 | 45 | 7.0 | 0.0 | 0.00 | 0.00 | 0.00 | 75 | 1058.0 |
| 20260505093954 | 52 | 45 | 6.0 | 0.0 | 0.00 | 0.00 | 0.00 | 75 | 1058.0 |
| 20260505093833 | 52 | 22 | 8.0 | 0.0 | 0.00 | 0.00 | 0.00 | 75 | 1058.1 |
| 20260505093711 | 52 | 0 | 3.0 | 0.0 | 0.00 | 0.00 | 0.00 | 75 | 1058.1 |
| 20260505093550 | 52 | 22 | 0.0 | 0.0 | 0.00 | 0.00 | 0.00 | 75 | 1058.1 |
| 20260505093437 | 51 | 45 | 0.0 | 0.0 | 0.00 | 0.00 | 0.00 | 75 | 1058.1 |
| 20260505093331 | 52 | 90 | 8.0 | 0.0 | 0.00 | 0.00 | 0.00 | 75 | 1058.1 |
| 20260505093225 | 52 | 90 | 10.0 | 0.0 | 0.00 | 0.00 | 0.00 | 75 | 1058.1 |
| 20260505093111 | 52 | 45 | 4.0 | 0.0 | 0.00 | 0.00 | 0.00 | 75 | 1058.1 |
| 20260505092951 | 52 | 22 | 6.0 | 0.0 | 0.00 | 0.00 | 0.00 | 75 | 1058.0 |
| 20260505092845 | 52 | 22 | 3.0 | 0.0 | 0.00 | 0.00 | 0.00 | 75 | 1058.1 |
| 20260505092732 | 52 | 22 | 7.0 | 0.0 | 0.00 | 0.00 | 0.00 | 75 | 1058.1 |
| 20260505092626 | 52 | 22 | 5.0 | 0.0 | 0.00 | 0.00 | 0.00 | 76 | 1058.1 |
| 20260505092506 | 52 | 45 | 4.0 | 0.0 | 0.00 | 0.00 | 0.00 | 76 | 1058.2 |
| 20260505092354 | 52 | 45 | 2.0 | 0.0 | 0.00 | 0.00 | 0.00 | 75 | 1058.2 |
| 20260505092248 | 52 | 22 | 11.0 | 0.0 | 0.00 | 0.00 | 0.00 | 75 | 1058.1 |
| 20260505092142 | 52 | 45 | 7.0 | 0.0 | 0.00 | 0.00 | 0.00 | 75 | 1058.2 |
| 20260505092029 | 52 | 22 | 5.0 | 0.0 | 0.00 | 0.00 | 0.00 | 75 | 1058.0 |
| 20260505091925 | 52 | 22 | 7.0 | 0.0 | 0.00 | 0.00 | 0.00 | 75 | 1058.1 |
| 20260505091819 | 52 | 45 | 4.0 | 0.0 | 0.00 | 0.00 | 0.00 | 76 | 1058.1 |
| 20260505091715 | 52 | 292 | 5.0 | 0.0 | 0.00 | 0.00 | 0.00 | 76 | 1058.2 |
| 20260505091608 | 52 | 22 | 0.0 | 0.0 | 0.00 | 0.00 | 0.00 | 76 | 1058.1 |
| 20260505091503 | 52 | 45 | 3.0 | 0.0 | 0.00 | 0.00 | 0.00 | 76 | 1058.2 |
| 20260505091357 | 52 | 22 | 5.0 | 0.0 | 0.00 | 0.00 | 0.00 | 76 | 1058.1 |
| 20260505091251 | 51 | 45 | 9.0 | 0.0 | 0.00 | 0.00 | 0.00 | 76 | 1058.1 |
| 20260505091145 | 51 | 0 | 6.0 | 0.0 | 0.00 | 0.00 | 0.00 | 76 | 1058.2 |
| 20260505091024 | 51 | 22 | 9.0 | 0.0 | 0.00 | 0.00 | 0.00 | 76 | 1058.1 |
| 20260505090910 | 51 | 22 | 3.0 | 0.0 | 0.00 | 0.00 | 0.00 | 76 | 1058.1 |
| 20260505090750 | 51 | 45 | 2.0 | 0.0 | 0.00 | 0.00 | 0.00 | 76 | 1058.1 |
| 20260505090646 | 51 | 67 | 1.0 | 0.0 | 0.00 | 0.00 | 0.00 | 75 | 1058.3 |
| 20260505090540 | 51 | 45 | 5.0 | 0.0 | 0.00 | 0.00 | 0.00 | 76 | 1058.2 |
| 20260505090432 | 51 | 22 | 6.0 | 0.0 | 0.00 | 0.00 | 0.00 | 76 | 1058.2 |
| 20260505090159 | 51 | 22 | 7.0 | 0.0 | 0.00 | 0.00 | 0.00 | 76 | 1058.2 |
| 20260505090054 | 51 | 22 | 7.0 | 0.0 | 0.00 | 0.00 | 0.00 | 76 | 1058.1 |
| 20260505085810 | 51 | 67 | 7.0 | 0.0 | 0.00 | 0.00 | 0.00 | 75 | 1058.0 |
| 20260505085705 | 51 | 45 | 4.0 | 0.0 | 0.00 | 0.00 | 0.00 | 75 | 1058.1 |
| 20260505085540 | 51 | 337 | 4.0 | 0.0 | 0.00 | 0.00 | 0.00 | 75 | 1058.1 |
| 20260505085429 | 51 | 22 | 8.0 | 0.0 | 0.00 | 0.00 | 0.00 | 75 | 1058.0 |
| 20260505085308 | 51 | 45 | 8.0 | 0.0 | 0.00 | 0.00 | 0.00 | 75 | 1058.1 |
| 20260505085139 | 51 | 0 | 8.0 | 0.0 | 0.00 | 0.00 | 0.00 | 75 | 1058.1 |
| 20260505085034 | 51 | 22 | 6.0 | 0.0 | 0.00 | 0.00 | 0.00 | 75 | 1058.1 |
| 20260505084928 | 51 | 0 | 6.0 | 0.0 | 0.00 | 0.00 | 0.00 | 75 | 1058.1 |
| 20260505084823 | 51 | 22 | 3.0 | 0.0 | 0.00 | 0.00 | 0.00 | 75 | 1058.1 |
| 20260505084719 | 51 | 45 | 14.0 | 0.0 | 0.00 | 0.00 | 0.00 | 75 | 1058.2 |
| 20260505084613 | 51 | 45 | 8.0 | 0.0 | 0.00 | 0.00 | 0.00 | 75 | 1058.1 |
| 20260505084508 | 51 | 45 | 4.0 | 0.0 | 0.00 | 0.00 | 0.00 | 75 | 1058.1 |
| 20260505084355 | 51 | 22 | 3.0 | 0.0 | 0.00 | 0.00 | 0.00 | 75 | 1058.0 |
| 20260505084234 | 52 | 45 | 8.0 | 0.0 | 0.00 | 0.00 | 0.00 | 75 | 1058.1 |
| 20260505084129 | 52 | 0 | 6.0 | 0.0 | 0.00 | 0.00 | 0.00 | 75 | 1058.1 |
| 20260505084015 | 52 | 45 | 5.0 | 0.0 | 0.00 | 0.00 | 0.00 | 75 | 1058.2 |
| 20260505083910 | 52 | 0 | 4.0 | 0.0 | 0.00 | 0.00 | 0.00 | 75 | 1058.2 |
| 20260505083804 | 52 | 22 | 3.0 | 0.0 | 0.00 | 0.00 | 0.00 | 75 | 1058.2 |
| 20260505083650 | 52 | 45 | 5.0 | 0.0 | 0.00 | 0.00 | 0.00 | 75 | 1058.2 |
| 20260505083537 | 52 | 22 | 6.0 | 0.0 | 0.00 | 0.00 | 0.00 | 75 | 1058.1 |
| 20260505083415 | 51 | 45 | 12.0 | 0.0 | 0.00 | 0.00 | 0.00 | 75 | 1058.1 |
| 20260505083246 | 51 | 90 | 3.0 | 0.0 | 0.00 | 0.00 | 0.00 | 75 | 1058.2 |
| 20260505083134 | 51 | 45 | 6.0 | 0.0 | 0.00 | 0.00 | 0.00 | 75 | 1058.0 |
| 20260505083028 | 51 | 22 | 8.0 | 0.0 | 0.00 | 0.00 | 0.00 | 75 | 1058.1 |
| 20260505082918 | 51 | 45 | 5.0 | 0.0 | 0.00 | 0.00 | 0.00 | 75 | 1058.1 |
| 20260505082812 | 51 | 22 | 5.0 | 0.0 | 0.00 | 0.00 | 0.00 | 75 | 1058.0 |
| 20260505082657 | 52 | 22 | 10.0 | 0.0 | 0.00 | 0.00 | 0.00 | 75 | 1058.1 |
| 20260505082537 | 52 | 22 | 6.0 | 0.0 | 0.00 | 0.00 | 0.00 | 75 | 1058.0 |
| 20260505082430 | 52 | 45 | 9.0 | 0.0 | 0.00 | 0.00 | 0.00 | 75 | 1058.0 |
| 20260505082311 | 51 | 45 | 2.0 | 0.0 | 0.00 | 0.00 | 0.00 | 76 | 1058.0 |
| 20260505082205 | 51 | 0 | 5.0 | 0.0 | 0.00 | 0.00 | 0.00 | 75 | 1058.0 |
| 20260505082058 | 51 | 22 | 5.0 | 0.0 | 0.00 | 0.00 | 0.00 | 75 | 1058.0 |
| 20260505081946 | 51 | 0 | 4.0 | 0.0 | 0.00 | 0.00 | 0.00 | 75 | 1058.0 |
| 20260505081833 | 51 | 0 | 4.0 | 0.0 | 0.00 | 0.00 | 0.00 | 75 | 1058.0 |
| 20260505081719 | 51 | 22 | 7.0 | 0.0 | 0.00 | 0.00 | 0.00 | 76 | 1057.9 |
| 20260505081605 | 51 | 45 | 6.0 | 0.0 | 0.00 | 0.00 | 0.00 | 75 | 1058.0 |
| 20260505081445 | 51 | 45 | 4.0 | 0.0 | 0.00 | 0.00 | 0.00 | 75 | 1058.0 |
| 20260505081340 | 51 | 45 | 7.0 | 0.0 | 0.00 | 0.00 | 0.00 | 75 | 1058.0 |
| 20260505081233 | 51 | 22 | 5.0 | 0.0 | 0.00 | 0.00 | 0.00 | 75 | 1058.0 |
| 20260505081115 | 51 | 22 | 7.0 | 0.0 | 0.00 | 0.00 | 0.00 | 75 | 1058.1 |
| 20260505081007 | 51 | 45 | 6.0 | 0.0 | 0.00 | 0.00 | 0.00 | 75 | 1058.0 |
| 20260505080855 | 51 | 45 | 10.0 | 0.0 | 0.00 | 0.00 | 0.00 | 75 | 1058.0 |
| 20260505080742 | 51 | 22 | 3.0 | 0.0 | 0.00 | 0.00 | 0.00 | 75 | 1058.1 |
| 20260505080622 | 51 | 45 | 13.0 | 0.0 | 0.00 | 0.00 | 0.00 | 76 | 1058.0 |
| 20260505080515 | 51 | 0 | 4.0 | 0.0 | 0.00 | 0.00 | 0.00 | 76 | 1058.0 |
| 20260505080410 | 51 | 90 | 4.0 | 0.0 | 0.00 | 0.00 | 0.00 | 76 | 1058.1 |
| 20260505080302 | 51 | 22 | 3.0 | 0.0 | 0.00 | 0.00 | 0.00 | 76 | 1058.1 |
| 20260505080149 | 51 | 45 | 5.0 | 0.0 | 0.00 | 0.00 | 0.00 | 76 | 1058.1 |
| 20260505080036 | 51 | 45 | 3.0 | 0.0 | 0.00 | 0.00 | 0.00 | 76 | 1058.1 |
| 20260505075930 | 51 | 0 | 6.0 | 0.0 | 0.00 | 0.00 | 0.00 | 76 | 1058.1 |
| 20260505075824 | 51 | 22 | 4.0 | 0.0 | 0.00 | 0.00 | 0.00 | 76 | 1058.1 |
| 20260505075712 | 51 | 45 | 0.0 | 0.0 | 0.00 | 0.00 | 0.00 | 76 | 1058.0 |
| 20260505075553 | 51 | 22 | 6.0 | 0.0 | 0.00 | 0.00 | 0.00 | 76 | 1058.0 |
| 20260505075446 | 51 | 90 | 2.0 | 0.0 | 0.00 | 0.00 | 0.00 | 76 | 1058.0 |
| 20260505075333 | 51 | 112 | 5.0 | 0.0 | 0.00 | 0.00 | 0.00 | 76 | 1058.0 |
| 20260505075228 | 51 | 90 | 3.0 | 0.0 | 0.00 | 0.00 | 0.00 | 76 | 1058.1 |
| 20260505075114 | 51 | 45 | 0.0 | 0.0 | 0.00 | 0.00 | 0.00 | 76 | 1058.0 |
| 20260505074945 | 51 | 22 | 5.0 | 0.0 | 0.00 | 0.00 | 0.00 | 76 | 1058.0 |
| 20260505074840 | 51 | 45 | 10.0 | 0.0 | 0.00 | 0.00 | 0.00 | 76 | 1058.0 |
| 20260505074735 | 51 | 0 | 8.0 | 0.0 | 0.00 | 0.00 | 0.00 | 77 | 1058.0 |
| 20260505074629 | 51 | 45 | 10.0 | 0.0 | 0.00 | 0.00 | 0.00 | 77 | 1058.0 |
| 20260505074523 | 51 | 45 | 5.0 | 0.0 | 0.00 | 0.00 | 0.00 | 77 | 1058.0 |
| 20260505074409 | 51 | 45 | 6.0 | 0.0 | 0.00 | 0.00 | 0.00 | 77 | 1058.0 |
| 20260505074301 | 50 | 22 | 3.0 | 0.0 | 0.00 | 0.00 | 0.00 | 76 | 1058.0 |
| 20260505074140 | 50 | 45 | 8.0 | 0.0 | 0.00 | 0.00 | 0.00 | 76 | 1058.0 |
| 20260505074026 | 50 | 90 | 8.0 | 0.0 | 0.00 | 0.00 | 0.00 | 76 | 1058.0 |
| 20260505073919 | 50 | 45 | 9.0 | 0.0 | 0.00 | 0.00 | 0.00 | 77 | 1058.0 |
| 20260505073814 | 50 | 45 | 4.0 | 0.0 | 0.00 | 0.00 | 0.00 | 77 | 1058.0 |
| 20260505073709 | 50 | 90 | 5.0 | 0.0 | 0.00 | 0.00 | 0.00 | 77 | 1058.0 |
| 20260505073602 | 50 | 45 | 6.0 | 0.0 | 0.00 | 0.00 | 0.00 | 77 | 1058.0 |
| 20260505073455 | 50 | 45 | 7.0 | 0.0 | 0.00 | 0.00 | 0.00 | 76 | 1058.0 |
| 20260505073341 | 50 | 90 | 5.0 | 0.0 | 0.00 | 0.00 | 0.00 | 76 | 1058.0 |
| 20260505073220 | 50 | 45 | 3.0 | 0.0 | 0.00 | 0.00 | 0.00 | 76 | 1058.0 |
| 20260505073114 | 50 | 45 | 8.0 | 0.0 | 0.00 | 0.00 | 0.00 | 76 | 1058.0 |
| 20260505073007 | 50 | 0 | 7.0 | 0.0 | 0.00 | 0.00 | 0.00 | 77 | 1058.1 |
| 20260505072854 | 50 | 67 | 7.0 | 0.0 | 0.00 | 0.00 | 0.00 | 78 | 1058.1 |
| 20260505072749 | 50 | 67 | 5.0 | 0.0 | 0.00 | 0.00 | 0.00 | 78 | 1058.1 |
| 20260505072643 | 50 | 67 | 5.0 | 0.0 | 0.00 | 0.00 | 0.00 | 78 | 1058.1 |
| 20260505072535 | 50 | 0 | 6.0 | 0.0 | 0.00 | 0.00 | 0.00 | 78 | 1058.0 |
| 20260505072422 | 50 | 112 | 6.0 | 0.0 | 0.00 | 0.00 | 0.00 | 78 | 1058.1 |
| 20260505072309 | 50 | 45 | 4.0 | 0.0 | 0.00 | 0.00 | 0.00 | 78 | 1058.0 |
| 20260505072159 | 50 | 67 | 0.0 | 0.0 | 0.00 | 0.00 | 0.00 | 78 | 1058.0 |
| 20260505072052 | 50 | 67 | 3.0 | 0.0 | 0.00 | 0.00 | 0.00 | 78 | 1058.0 |
| 20260505071946 | 50 | 45 | 0.0 | 0.0 | 0.00 | 0.00 | 0.00 | 78 | 1058.1 |
| 20260505071833 | 50 | 45 | 4.0 | 0.0 | 0.00 | 0.00 | 0.00 | 78 | 1058.0 |
| 20260505071727 | 50 | 67 | 4.0 | 0.0 | 0.00 | 0.00 | 0.00 | 78 | 1058.0 |
| 20260505071615 | 50 | 22 | 3.0 | 0.0 | 0.00 | 0.00 | 0.00 | 78 | 1058.0 |
| 20260505071502 | 50 | 45 | 4.0 | 0.0 | 0.00 | 0.00 | 0.00 | 78 | 1058.1 |
| 20260505071351 | 50 | 22 | 5.0 | 0.0 | 0.00 | 0.00 | 0.00 | 79 | 1058.1 |
| 20260505071243 | 50 | 22 | 0.0 | 0.0 | 0.00 | 0.00 | 0.00 | 79 | 1058.1 |
| 20260505071131 | 50 | 90 | 3.0 | 0.0 | 0.00 | 0.00 | 0.00 | 79 | 1058.1 |
| 20260505071025 | 50 | 112 | 0.0 | 0.0 | 0.00 | 0.00 | 0.00 | 79 | 1058.1 |
| 20260505070913 | 49 | 45 | 2.0 | 0.0 | 0.00 | 0.00 | 0.00 | 80 | 1058.1 |
| 20260505070759 | 49 | 67 | 3.0 | 0.0 | 0.00 | 0.00 | 0.00 | 80 | 1058.1 |
| 20260505070646 | 49 | 67 | 0.0 | 0.0 | 0.00 | 0.00 | 0.00 | 80 | 1058.1 |
| 20260505070533 | 49 | 67 | 6.0 | 0.0 | 0.00 | 0.00 | 0.00 | 80 | 1058.1 |
| 20260505070429 | 49 | 45 | 7.0 | 0.0 | 0.00 | 0.00 | 0.00 | 80 | 1058.2 |
| 20260505070323 | 49 | 22 | 6.0 | 0.0 | 0.00 | 0.00 | 0.00 | 80 | 1058.1 |
| 20260505070218 | 49 | 90 | 4.0 | 0.0 | 0.00 | 0.00 | 0.00 | 80 | 1058.1 |
| 20260505070113 | 49 | 67 | 4.0 | 0.0 | 0.00 | 0.00 | 0.00 | 79 | 1058.0 |
| 20260505070000 | 49 | 67 | 1.0 | 0.0 | 0.00 | 0.00 | 0.00 | 79 | 1058.1 |
| 20260505065855 | 49 | 67 | 1.0 | 0.0 | 0.00 | 0.00 | 0.00 | 80 | 1058.1 |
| 20260505065742 | 49 | 22 | 7.0 | 0.0 | 0.00 | 0.00 | 0.00 | 80 | 1058.1 |
| 20260505065630 | 49 | 67 | 1.0 | 0.0 | 0.00 | 0.00 | 0.00 | 80 | 1058.2 |
| 20260505065526 | 49 | 45 | 6.0 | 0.0 | 0.00 | 0.00 | 0.00 | 80 | 1058.1 |
| 20260505065418 | 49 | 45 | 4.0 | 0.0 | 0.00 | 0.00 | 0.00 | 80 | 1058.1 |
| 20260505065259 | 49 | 67 | 0.0 | 0.0 | 0.00 | 0.00 | 0.00 | 80 | 1058.2 |
| 20260505065152 | 49 | 22 | 7.0 | 0.0 | 0.00 | 0.00 | 0.00 | 80 | 1058.1 |
| 20260505065039 | 49 | 45 | 5.0 | 0.0 | 0.00 | 0.00 | 0.00 | 80 | 1058.1 |
| 20260505064928 | 49 | 45 | 8.0 | 0.0 | 0.00 | 0.00 | 0.00 | 80 | 1058.1 |
| 20260505064821 | 49 | 45 | 2.0 | 0.0 | 0.00 | 0.00 | 0.00 | 80 | 1058.2 |
| 20260505064709 | 49 | 45 | 9.0 | 0.0 | 0.00 | 0.00 | 0.00 | 80 | 1058.2 |
| 20260505064603 | 49 | 0 | 6.0 | 0.0 | 0.00 | 0.00 | 0.00 | 80 | 1058.2 |
| 20260505064450 | 49 | 45 | 3.0 | 0.0 | 0.00 | 0.00 | 0.00 | 80 | 1058.2 |
| 20260505064345 | 49 | 22 | 8.0 | 0.0 | 0.00 | 0.00 | 0.00 | 80 | 1058.2 |
| 20260505064224 | 49 | 22 | 4.0 | 0.0 | 0.00 | 0.00 | 0.00 | 80 | 1058.2 |
| 20260505064111 | 49 | 0 | 3.0 | 0.0 | 0.00 | 0.00 | 0.00 | 80 | 1058.1 |
| 20260505063957 | 49 | 67 | 4.0 | 0.0 | 0.00 | 0.00 | 0.00 | 80 | 1058.1 |
| 20260505063836 | 49 | 0 | 5.0 | 0.0 | 0.00 | 0.00 | 0.00 | 80 | 1058.2 |
| 20260505063723 | 49 | 67 | 6.0 | 0.0 | 0.00 | 0.00 | 0.00 | 80 | 1058.2 |
| 20260505063602 | 49 | 22 | 6.0 | 0.0 | 0.00 | 0.00 | 0.00 | 81 | 1058.2 |
| 20260505063440 | 49 | 22 | 5.0 | 0.0 | 0.00 | 0.00 | 0.00 | 81 | 1058.1 |
| 20260505063311 | 49 | 22 | 6.0 | 0.0 | 0.00 | 0.00 | 0.00 | 81 | 1058.2 |
| 20260505063142 | 49 | 67 | 4.0 | 0.0 | 0.00 | 0.00 | 0.00 | 81 | 1058.1 |
| 20260505063030 | 49 | 45 | 3.0 | 0.0 | 0.00 | 0.00 | 0.00 | 81 | 1058.2 |
| 20260505062925 | 49 | 22 | 2.0 | 0.0 | 0.00 | 0.00 | 0.00 | 81 | 1058.2 |
| 20260505062822 | 48 | 45 | 5.0 | 0.0 | 0.00 | 0.00 | 0.00 | 81 | 1058.2 |
| 20260505062716 | 48 | 45 | 0.0 | 0.0 | 0.00 | 0.00 | 0.00 | 81 | 1058.2 |
| 20260505062608 | 48 | 45 | 3.0 | 0.0 | 0.00 | 0.00 | 0.00 | 81 | 1058.3 |
| 20260505062439 | 48 | 45 | 0.0 | 0.0 | 0.00 | 0.00 | 0.00 | 81 | 1058.3 |
| 20260505062318 | 48 | 45 | 5.0 | 0.0 | 0.00 | 0.00 | 0.00 | 81 | 1058.3 |
| 20260505062149 | 48 | 90 | 2.0 | 0.0 | 0.00 | 0.00 | 0.00 | 81 | 1058.3 |
| 20260505062035 | 48 | 90 | 5.0 | 0.0 | 0.00 | 0.00 | 0.00 | 81 | 1058.3 |
| 20260505061858 | 48 | 45 | 6.0 | 0.0 | 0.00 | 0.00 | 0.00 | 80 | 1058.3 |
| 20260505061615 | 48 | 45 | 6.0 | 0.0 | 0.00 | 0.00 | 0.00 | 80 | 1058.2 |
| 20260505061451 | 48 | 45 | 4.0 | 0.0 | 0.00 | 0.00 | 0.00 | 80 | 1058.4 |
| 20260505061236 | 48 | 45 | 2.0 | 0.0 | 0.00 | 0.00 | 0.00 | 80 | 1058.4 |
| 20260505061107 | 48 | 45 | 3.0 | 0.0 | 0.00 | 0.00 | 0.00 | 80 | 1058.3 |
| 20260505060946 | 48 | 45 | 7.0 | 0.0 | 0.00 | 0.00 | 0.00 | 80 | 1058.3 |
| 20260505060832 | 48 | 90 | 3.0 | 0.0 | 0.00 | 0.00 | 0.00 | 80 | 1058.3 |
| 20260505060712 | 48 | 22 | 5.0 | 0.0 | 0.00 | 0.00 | 0.00 | 80 | 1058.3 |
| 20260505060558 | 48 | 45 | 6.0 | 0.0 | 0.00 | 0.00 | 0.00 | 81 | 1058.3 |
| 20260505060429 | 48 | 67 | 6.0 | 0.0 | 0.00 | 0.00 | 0.00 | 81 | 1058.3 |
| 20260505060315 | 48 | 22 | 3.0 | 0.0 | 0.00 | 0.00 | 0.00 | 81 | 1058.2 |
| 20260505060138 | 48 | 45 | 5.0 | 0.0 | 0.00 | 0.00 | 0.00 | 81 | 1058.2 |
| 20260505060026 | 48 | 67 | 4.0 | 0.0 | 0.00 | 0.00 | 0.00 | 81 | 1058.2 |
| 20260505055920 | 48 | 90 | 4.0 | 0.0 | 0.00 | 0.00 | 0.00 | 81 | 1058.1 |
| 20260505055801 | 48 | 67 | 2.0 | 0.0 | 0.00 | 0.00 | 0.00 | 81 | 1058.1 |
| 20260505055654 | 48 | 90 | 5.0 | 0.0 | 0.00 | 0.00 | 0.00 | 81 | 1058.0 |
| 20260505055542 | 48 | 45 | 12.0 | 0.0 | 0.00 | 0.00 | 0.00 | 81 | 1058.0 |
| 20260505055435 | 48 | 45 | 2.0 | 0.0 | 0.00 | 0.00 | 0.00 | 81 | 1058.2 |
| 20260505055314 | 48 | 67 | 4.0 | 0.0 | 0.00 | 0.00 | 0.00 | 81 | 1058.1 |
| 20260505055155 | 48 | 45 | 7.0 | 0.0 | 0.00 | 0.00 | 0.00 | 81 | 1058.1 |
| 20260505055048 | 48 | 67 | 0.0 | 0.0 | 0.00 | 0.00 | 0.00 | 81 | 1058.1 |
| 20260505054922 | 48 | 45 | 4.0 | 0.0 | 0.00 | 0.00 | 0.00 | 81 | 1058.2 |
| 20260505054815 | 48 | 45 | 3.0 | 0.0 | 0.00 | 0.00 | 0.00 | 81 | 1058.4 |
| 20260505054419 | 48 | 67 | 5.0 | 0.0 | 0.00 | 0.00 | 0.00 | 81 | 1058.3 |
| 20260505054313 | 48 | 45 | 0.0 | 0.0 | 0.00 | 0.00 | 0.00 | 81 | 1058.3 |
| 20260505054144 | 48 | 90 | 3.0 | 0.0 | 0.00 | 0.00 | 0.00 | 81 | 1058.3 |
| 20260505054022 | 48 | 45 | 6.0 | 0.0 | 0.00 | 0.00 | 0.00 | 81 | 1058.3 |
| 20260505053902 | 48 | 67 | 5.0 | 0.0 | 0.00 | 0.00 | 0.00 | 81 | 1058.3 |
| 20260505053741 | 48 | 45 | 5.0 | 0.0 | 0.00 | 0.00 | 0.00 | 81 | 1058.2 |
| 20260505053635 | 48 | 45 | 0.0 | 0.0 | 0.00 | 0.00 | 0.00 | 81 | 1058.3 |
| 20260505053505 | 48 | 22 | 6.0 | 0.0 | 0.00 | 0.00 | 0.00 | 81 | 1058.1 |
| 20260505053353 | 48 | 90 | 2.0 | 0.0 | 0.00 | 0.00 | 0.00 | 81 | 1058.3 |
| 20260505053231 | 48 | 112 | 4.0 | 0.0 | 0.00 | 0.00 | 0.00 | 81 | 1058.2 |
| 20260505053102 | 48 | 67 | 2.0 | 0.0 | 0.00 | 0.00 | 0.00 | 81 | 1058.2 |
| 20260505052940 | 48 | 112 | 0.0 | 0.0 | 0.00 | 0.00 | 0.00 | 81 | 1058.2 |
| 20260505052813 | 48 | 45 | 3.0 | 0.0 | 0.00 | 0.00 | 0.00 | 81 | 1058.2 |
| 20260505052658 | 48 | 90 | 2.0 | 0.0 | 0.00 | 0.00 | 0.00 | 81 | 1058.2 |
| 20260505052537 | 48 | 45 | 5.0 | 0.0 | 0.00 | 0.00 | 0.00 | 81 | 1058.2 |
| 20260505052407 | 48 | 45 | 8.0 | 0.0 | 0.00 | 0.00 | 0.00 | 81 | 1058.3 |
| 20260505052238 | 48 | 90 | 4.0 | 0.0 | 0.00 | 0.00 | 0.00 | 82 | 1058.1 |
| 20260505052111 | 48 | 67 | 8.0 | 0.0 | 0.00 | 0.00 | 0.00 | 82 | 1058.1 |
| 20260505052004 | 48 | 45 | 6.0 | 0.0 | 0.00 | 0.00 | 0.00 | 82 | 1058.1 |
| 20260505051851 | 48 | 45 | 4.0 | 0.0 | 0.00 | 0.00 | 0.00 | 82 | 1058.1 |
| 20260505051737 | 48 | 45 | 2.0 | 0.0 | 0.00 | 0.00 | 0.00 | 82 | 1058.1 |
| 20260505051619 | 48 | 45 | 6.0 | 0.0 | 0.00 | 0.00 | 0.00 | 82 | 1058.1 |
| 20260505051512 | 48 | 45 | 4.0 | 0.0 | 0.00 | 0.00 | 0.00 | 82 | 1058.1 |
| 20260505051350 | 48 | 45 | 4.0 | 0.0 | 0.00 | 0.00 | 0.00 | 82 | 1058.1 |
| 20260505051229 | 48 | 90 | 4.0 | 0.0 | 0.00 | 0.00 | 0.00 | 82 | 1058.1 |
| 20260505051116 | 48 | 45 | 2.0 | 0.0 | 0.00 | 0.00 | 0.00 | 82 | 1058.0 |
| 20260505051003 | 48 | 90 | 0.0 | 0.0 | 0.00 | 0.00 | 0.00 | 82 | 1058.0 |
| 20260505050841 | 48 | 22 | 3.0 | 0.0 | 0.00 | 0.00 | 0.00 | 82 | 1058.1 |
| 20260505050722 | 48 | 45 | 2.0 | 0.0 | 0.00 | 0.00 | 0.00 | 82 | 1058.1 |
| 20260505050615 | 48 | 67 | 0.0 | 0.0 | 0.00 | 0.00 | 0.00 | 82 | 1058.1 |
| 20260505050456 | 48 | 67 | 5.0 | 0.0 | 0.00 | 0.00 | 0.00 | 82 | 1058.1 |
| 20260505050351 | 48 | 45 | 5.0 | 0.0 | 0.00 | 0.00 | 0.00 | 82 | 1058.0 |
| 20260505050243 | 48 | 67 | 0.0 | 0.0 | 0.00 | 0.00 | 0.00 | 82 | 1058.1 |
| 20260505050131 | 47 | 90 | 9.0 | 0.0 | 0.00 | 0.00 | 0.00 | 82 | 1058.1 |
| 20260505041730 | 47 | 22 | 4.0 | 0.0 | 0.00 | 0.00 | 0.00 | 83 | 1057.9 |
| 20260505041608 | 47 | 45 | 7.0 | 0.0 | 0.00 | 0.00 | 0.00 | 83 | 1057.9 |
| 20260505041455 | 47 | 22 | 6.0 | 0.0 | 0.00 | 0.00 | 0.00 | 83 | 1058.0 |
| 20260505041341 | 47 | 67 | 6.0 | 0.0 | 0.00 | 0.00 | 0.00 | 83 | 1057.9 |
| 20260505041213 | 47 | 45 | 5.0 | 0.0 | 0.00 | 0.00 | 0.00 | 83 | 1057.8 |
| 20260505041044 | 47 | 45 | 4.0 | 0.0 | 0.00 | 0.00 | 0.00 | 83 | 1057.8 |
| 20260505040930 | 47 | 45 | 2.0 | 0.0 | 0.00 | 0.00 | 0.00 | 83 | 1057.9 |
| 20260505040812 | 47 | 22 | 6.0 | 0.0 | 0.00 | 0.00 | 0.00 | 83 | 1057.9 |
| 20260505040656 | 47 | 45 | 2.0 | 0.0 | 0.00 | 0.00 | 0.00 | 83 | 1057.8 |
| 20260505040543 | 47 | 22 | 4.0 | 0.0 | 0.00 | 0.00 | 0.00 | 83 | 1057.9 |
| 20260505040431 | 47 | 0 | 2.0 | 0.0 | 0.00 | 0.00 | 0.00 | 83 | 1057.8 |
| 20260505040324 | 47 | 0 | 4.0 | 0.0 | 0.00 | 0.00 | 0.00 | 83 | 1057.8 |
| 20260505040211 | 47 | 45 | 7.0 | 0.0 | 0.00 | 0.00 | 0.00 | 83 | 1057.8 |
| 20260505040051 | 47 | 0 | 7.0 | 0.0 | 0.00 | 0.00 | 0.00 | 83 | 1057.8 |
| 20260505035945 | 47 | 0 | 3.0 | 0.0 | 0.00 | 0.00 | 0.00 | 83 | 1057.8 |
| 20260505035832 | 47 | 45 | 4.0 | 0.0 | 0.00 | 0.00 | 0.00 | 83 | 1057.7 |
| 20260505035710 | 47 | 67 | 0.0 | 0.0 | 0.00 | 0.00 | 0.00 | 83 | 1057.8 |
| 20260505035558 | 47 | 22 | 5.0 | 0.0 | 0.00 | 0.00 | 0.00 | 83 | 1057.8 |
| 20260505035436 | 47 | 22 | 5.0 | 0.0 | 0.00 | 0.00 | 0.00 | 83 | 1057.9 |
| 20260505035316 | 47 | 0 | 4.0 | 0.0 | 0.00 | 0.00 | 0.00 | 83 | 1057.8 |
| 20260505035202 | 47 | 45 | 6.0 | 0.0 | 0.00 | 0.00 | 0.00 | 83 | 1057.8 |
| 20260505035042 | 47 | 22 | 6.0 | 0.0 | 0.00 | 0.00 | 0.00 | 83 | 1057.8 |
| 20260505034929 | 47 | 22 | 3.0 | 0.0 | 0.00 | 0.00 | 0.00 | 83 | 1057.9 |
| 20260505034824 | 47 | 45 | 5.0 | 0.0 | 0.00 | 0.00 | 0.00 | 83 | 1057.9 |
| 20260505034711 | 47 | 45 | 2.0 | 0.0 | 0.00 | 0.00 | 0.00 | 83 | 1057.8 |
| 20260505034606 | 47 | 22 | 6.0 | 0.0 | 0.00 | 0.00 | 0.00 | 83 | 1057.9 |
| 20260505034454 | 47 | 0 | 4.0 | 0.0 | 0.00 | 0.00 | 0.00 | 83 | 1057.8 |
| 20260505034338 | 47 | 45 | 6.0 | 0.0 | 0.00 | 0.00 | 0.00 | 83 | 1057.8 |
| 20260505034226 | 47 | 90 | 5.0 | 0.0 | 0.00 | 0.00 | 0.00 | 83 | 1057.9 |
| 20260505034104 | 47 | 90 | 10.0 | 0.0 | 0.00 | 0.00 | 0.00 | 83 | 1057.8 |
| 20260505033951 | 47 | 22 | 6.0 | 0.0 | 0.00 | 0.00 | 0.00 | 83 | 1057.8 |
| 20260505033832 | 47 | 22 | 5.0 | 0.0 | 0.00 | 0.00 | 0.00 | 83 | 1057.9 |
| 20260505033724 | 47 | 22 | 10.0 | 0.0 | 0.00 | 0.00 | 0.00 | 83 | 1057.9 |
| 20260505033605 | 47 | 0 | 0.0 | 0.0 | 0.00 | 0.00 | 0.00 | 83 | 1057.9 |
| 20260505033458 | 47 | 45 | 7.0 | 0.0 | 0.00 | 0.00 | 0.00 | 83 | 1057.8 |
| 20260505033344 | 47 | 0 | 2.0 | 0.0 | 0.00 | 0.00 | 0.00 | 83 | 1057.9 |
| 20260505033216 | 47 | 22 | 3.0 | 0.0 | 0.00 | 0.00 | 0.00 | 83 | 1057.8 |
| 20260505033103 | 47 | 67 | 7.0 | 0.0 | 0.00 | 0.00 | 0.00 | 83 | 1057.8 |
| 20260505032949 | 47 | 45 | 6.0 | 0.0 | 0.00 | 0.00 | 0.00 | 83 | 1057.9 |
| 20260505032838 | 47 | 0 | 7.0 | 0.0 | 0.00 | 0.00 | 0.00 | 83 | 1057.9 |
| 20260505032731 | 47 | 67 | 5.0 | 0.0 | 0.00 | 0.00 | 0.00 | 83 | 1058.0 |
| 20260505032618 | 47 | 45 | 4.0 | 0.0 | 0.00 | 0.00 | 0.00 | 84 | 1057.9 |
| 20260505032512 | 47 | 22 | 2.0 | 0.0 | 0.00 | 0.00 | 0.00 | 84 | 1058.0 |
| 20260505032359 | 47 | 22 | 8.0 | 0.0 | 0.00 | 0.00 | 0.00 | 84 | 1057.9 |
| 20260505032238 | 47 | 22 | 6.0 | 0.0 | 0.00 | 0.00 | 0.00 | 84 | 1058.0 |
| 20260505032133 | 47 | 22 | 6.0 | 0.0 | 0.00 | 0.00 | 0.00 | 84 | 1058.0 |
| 20260505032020 | 47 | 45 | 5.0 | 0.0 | 0.00 | 0.00 | 0.00 | 84 | 1058.0 |
| 20260505031858 | 47 | 67 | 7.0 | 0.0 | 0.00 | 0.00 | 0.00 | 84 | 1057.9 |
| 20260505031740 | 47 | 67 | 7.0 | 0.0 | 0.00 | 0.00 | 0.00 | 84 | 1058.0 |
| 20260505031632 | 47 | 22 | 6.0 | 0.0 | 0.00 | 0.00 | 0.00 | 84 | 1058.0 |
| 20260505031510 | 47 | 67 | 7.0 | 0.0 | 0.00 | 0.00 | 0.00 | 84 | 1058.0 |
| 20260505031352 | 47 | 22 | 5.0 | 0.0 | 0.00 | 0.00 | 0.00 | 84 | 1058.1 |
| 20260505031245 | 47 | 45 | 3.0 | 0.0 | 0.00 | 0.00 | 0.00 | 84 | 1058.0 |
| 20260505031131 | 47 | 22 | 4.0 | 0.0 | 0.00 | 0.00 | 0.00 | 84 | 1058.1 |
| 20260505031010 | 47 | 22 | 7.0 | 0.0 | 0.00 | 0.00 | 0.00 | 84 | 1058.0 |
| 20260505030849 | 48 | 22 | 0.0 | 0.0 | 0.00 | 0.00 | 0.00 | 84 | 1058.2 |
| 20260505030744 | 48 | 45 | 1.0 | 0.0 | 0.00 | 0.00 | 0.00 | 84 | 1058.1 |
| 20260505030631 | 48 | 22 | 3.0 | 0.0 | 0.00 | 0.00 | 0.00 | 83 | 1058.1 |
| 20260505030509 | 48 | 0 | 4.0 | 0.0 | 0.00 | 0.00 | 0.00 | 84 | 1058.2 |
| 20260505030356 | 48 | 67 | 5.0 | 0.0 | 0.00 | 0.00 | 0.00 | 84 | 1058.1 |
| 20260505030244 | 48 | 22 | 3.0 | 0.0 | 0.00 | 0.00 | 0.00 | 83 | 1058.2 |
| 20260505030136 | 48 | 22 | 5.0 | 0.0 | 0.00 | 0.00 | 0.00 | 84 | 1058.1 |
| 20260505030017 | 48 | 22 | 4.0 | 0.0 | 0.00 | 0.00 | 0.00 | 84 | 1058.1 |
| 20260505025908 | 48 | 22 | 5.0 | 0.0 | 0.00 | 0.00 | 0.00 | 84 | 1058.1 |
| 20260505025754 | 48 | 0 | 4.0 | 0.0 | 0.00 | 0.00 | 0.00 | 84 | 1058.2 |
| 20260505025648 | 48 | 22 | 5.0 | 0.0 | 0.00 | 0.00 | 0.00 | 84 | 1058.1 |
| 20260505025525 | 48 | 45 | 4.0 | 0.0 | 0.00 | 0.00 | 0.00 | 84 | 1058.1 |
| 20260505025411 | 48 | 0 | 3.0 | 0.0 | 0.00 | 0.00 | 0.00 | 84 | 1058.1 |
| 20260505025257 | 48 | 22 | 5.0 | 0.0 | 0.00 | 0.00 | 0.00 | 84 | 1058.0 |
| 20260505025154 | 48 | 0 | 4.0 | 0.0 | 0.00 | 0.00 | 0.00 | 84 | 1058.0 |
| 20260505025047 | 48 | 45 | 4.0 | 0.0 | 0.00 | 0.00 | 0.00 | 84 | 1058.1 |
| 20260505024933 | 48 | 0 | 6.0 | 0.0 | 0.00 | 0.00 | 0.00 | 84 | 1058.0 |
| 20260505024811 | 48 | 22 | 6.0 | 0.0 | 0.00 | 0.00 | 0.00 | 84 | 1058.1 |
| 20260505024642 | 48 | 0 | 4.0 | 0.0 | 0.00 | 0.00 | 0.00 | 84 | 1058.1 |
| 20260505024527 | 48 | 22 | 4.0 | 0.0 | 0.00 | 0.00 | 0.00 | 84 | 1058.1 |
| 20260505024414 | 48 | 22 | 2.0 | 0.0 | 0.00 | 0.00 | 0.00 | 84 | 1058.2 |
| 20260505024253 | 48 | 22 | 8.0 | 0.0 | 0.00 | 0.00 | 0.00 | 84 | 1058.1 |
| 20260505024141 | 48 | 0 | 3.0 | 0.0 | 0.00 | 0.00 | 0.00 | 84 | 1058.1 |
| 20260505024034 | 48 | 45 | 6.0 | 0.0 | 0.00 | 0.00 | 0.00 | 84 | 1058.1 |
| 20260505023920 | 48 | 22 | 6.0 | 0.0 | 0.00 | 0.00 | 0.00 | 84 | 1058.2 |
| 20260505023754 | 48 | 0 | 2.0 | 0.0 | 0.00 | 0.00 | 0.00 | 84 | 1058.3 |
| 20260505023638 | 48 | 45 | 7.0 | 0.0 | 0.00 | 0.00 | 0.00 | 84 | 1058.2 |
| 20260505023526 | 48 | 22 | 6.0 | 0.0 | 0.00 | 0.00 | 0.00 | 84 | 1058.2 |
| 20260505023414 | 48 | 45 | 6.0 | 0.0 | 0.00 | 0.00 | 0.00 | 84 | 1058.2 |
| 20260505023301 | 48 | 45 | 2.0 | 0.0 | 0.00 | 0.00 | 0.00 | 84 | 1058.2 |
| 20260505023154 | 48 | 22 | 0.0 | 0.0 | 0.00 | 0.00 | 0.00 | 84 | 1058.2 |
| 20260505023041 | 48 | 22 | 4.0 | 0.0 | 0.00 | 0.00 | 0.00 | 84 | 1058.3 |
| 20260505022921 | 48 | 22 | 6.0 | 0.0 | 0.00 | 0.00 | 0.00 | 84 | 1058.3 |
| 20260505022814 | 48 | 22 | 6.0 | 0.0 | 0.00 | 0.00 | 0.00 | 84 | 1058.2 |
| 20260505022653 | 48 | 22 | 4.0 | 0.0 | 0.00 | 0.00 | 0.00 | 84 | 1058.3 |
| 20260505022532 | 48 | 22 | 6.0 | 0.0 | 0.00 | 0.00 | 0.00 | 84 | 1058.2 |
| 20260505022411 | 48 | 45 | 7.0 | 0.0 | 0.00 | 0.00 | 0.00 | 84 | 1058.2 |
| 20260505022306 | 48 | 22 | 9.0 | 0.0 | 0.00 | 0.00 | 0.00 | 84 | 1058.3 |
| 20260505022154 | 48 | 45 | 3.0 | 0.0 | 0.00 | 0.00 | 0.00 | 84 | 1058.3 |
| 20260505022050 | 48 | 0 | 4.0 | 0.0 | 0.00 | 0.00 | 0.00 | 84 | 1058.3 |
| 20260505021941 | 48 | 0 | 3.0 | 0.0 | 0.00 | 0.00 | 0.00 | 84 | 1058.2 |
| 20260505021822 | 48 | 22 | 2.0 | 0.0 | 0.00 | 0.00 | 0.00 | 84 | 1058.2 |
| 20260505021708 | 48 | 22 | 4.0 | 0.0 | 0.00 | 0.00 | 0.00 | 84 | 1058.3 |
| 20260505021549 | 48 | 22 | 0.0 | 0.0 | 0.00 | 0.00 | 0.00 | 84 | 1058.3 |
| 20260505021436 | 48 | 22 | 3.0 | 0.0 | 0.00 | 0.00 | 0.00 | 84 | 1058.3 |
| 20260505021331 | 48 | 22 | 2.0 | 0.0 | 0.00 | 0.00 | 0.00 | 84 | 1058.2 |
| 20260505021224 | 48 | 45 | 4.0 | 0.0 | 0.00 | 0.00 | 0.00 | 84 | 1058.4 |
| 20260505021110 | 48 | 22 | 6.0 | 0.0 | 0.00 | 0.00 | 0.00 | 84 | 1058.3 |
| 20260505020943 | 48 | 22 | 7.0 | 0.0 | 0.00 | 0.00 | 0.00 | 84 | 1058.4 |
| 20260505020837 | 48 | 22 | 3.0 | 0.0 | 0.00 | 0.00 | 0.00 | 84 | 1058.4 |
| 20260505020724 | 48 | 22 | 0.0 | 0.0 | 0.00 | 0.00 | 0.00 | 84 | 1058.3 |
| 20260505020602 | 48 | 0 | 2.0 | 0.0 | 0.00 | 0.00 | 0.00 | 84 | 1058.3 |
| 20260505020442 | 48 | 22 | 3.0 | 0.0 | 0.00 | 0.00 | 0.00 | 84 | 1058.3 |
| 20260505020337 | 48 | 0 | 0.0 | 0.0 | 0.00 | 0.00 | 0.00 | 84 | 1058.3 |
| 20260505020232 | 48 | 45 | 2.0 | 0.0 | 0.00 | 0.00 | 0.00 | 84 | 1058.4 |
| 20260505020126 | 48 | 0 | 4.0 | 0.0 | 0.00 | 0.00 | 0.00 | 84 | 1058.4 |
| 20260505020012 | 48 | 0 | 4.0 | 0.0 | 0.00 | 0.00 | 0.00 | 84 | 1058.4 |
| 20260505015900 | 48 | 0 | 7.0 | 0.0 | 0.00 | 0.00 | 0.00 | 84 | 1058.5 |
| 20260505015746 | 48 | 22 | 4.0 | 0.0 | 0.00 | 0.00 | 0.00 | 84 | 1058.4 |
| 20260505015632 | 48 | 22 | 7.0 | 0.0 | 0.00 | 0.00 | 0.00 | 84 | 1058.5 |
| 20260505015512 | 48 | 22 | 7.0 | 0.0 | 0.00 | 0.00 | 0.00 | 84 | 1058.4 |
| 20260505015352 | 48 | 22 | 5.0 | 0.0 | 0.00 | 0.00 | 0.00 | 84 | 1058.4 |
| 20260505015246 | 48 | 0 | 4.0 | 0.0 | 0.00 | 0.00 | 0.00 | 84 | 1058.4 |
| 20260505015141 | 48 | 22 | 6.0 | 0.0 | 0.00 | 0.00 | 0.00 | 84 | 1058.4 |
| 20260505015027 | 48 | 67 | 8.0 | 0.0 | 0.00 | 0.00 | 0.00 | 84 | 1058.5 |
| 20260505014900 | 48 | 0 | 3.0 | 0.0 | 0.00 | 0.00 | 0.00 | 84 | 1058.4 |
| 20260505014754 | 48 | 22 | 6.0 | 0.0 | 0.00 | 0.00 | 0.00 | 84 | 1058.4 |
| 20260505014649 | 48 | 0 | 3.0 | 0.0 | 0.00 | 0.00 | 0.00 | 84 | 1058.4 |
| 20260505014535 | 48 | 45 | 6.0 | 0.0 | 0.00 | 0.00 | 0.00 | 84 | 1058.4 |
| 20260505014415 | 48 | 22 | 10.0 | 0.0 | 0.00 | 0.00 | 0.00 | 84 | 1058.4 |
| 20260505014301 | 48 | 337 | 4.0 | 0.0 | 0.00 | 0.00 | 0.00 | 84 | 1058.4 |
| 20260505014139 | 48 | 0 | 5.0 | 0.0 | 0.00 | 0.00 | 0.00 | 84 | 1058.4 |
| 20260505014029 | 48 | 22 | 5.0 | 0.0 | 0.00 | 0.00 | 0.00 | 84 | 1058.5 |
| 20260505013924 | 48 | 337 | 6.0 | 0.0 | 0.00 | 0.00 | 0.00 | 84 | 1058.5 |
| 20260505013819 | 48 | 0 | 2.0 | 0.0 | 0.00 | 0.00 | 0.00 | 84 | 1058.5 |
| 20260505013712 | 48 | 0 | 2.0 | 0.0 | 0.00 | 0.00 | 0.00 | 84 | 1058.4 |
| 20260505013558 | 48 | 45 | 7.0 | 0.0 | 0.00 | 0.00 | 0.00 | 84 | 1058.5 |
| 20260505013437 | 48 | 22 | 3.0 | 0.0 | 0.00 | 0.00 | 0.00 | 84 | 1058.4 |
| 20260505013315 | 48 | 0 | 4.0 | 0.0 | 0.00 | 0.00 | 0.00 | 84 | 1058.6 |
| 20260505013138 | 48 | 337 | 3.0 | 0.0 | 0.00 | 0.00 | 0.00 | 84 | 1058.5 |
| 20260505012903 | 48 | 0 | 3.0 | 0.0 | 0.00 | 0.00 | 0.00 | 84 | 1058.5 |
| 20260505012751 | 48 | 0 | 1.0 | 0.0 | 0.00 | 0.00 | 0.00 | 84 | 1058.6 |
| 20260505012517 | 48 | 0 | 3.0 | 0.0 | 0.00 | 0.00 | 0.00 | 84 | 1058.5 |
| 20260505012414 | 48 | 0 | 0.0 | 0.0 | 0.00 | 0.00 | 0.00 | 84 | 1058.5 |
| 20260505012306 | 48 | 0 | 3.0 | 0.0 | 0.00 | 0.00 | 0.00 | 84 | 1058.6 |
| 20260505012155 | 48 | 0 | 6.0 | 0.0 | 0.00 | 0.00 | 0.00 | 84 | 1058.6 |
| 20260505012048 | 48 | 337 | 6.0 | 0.0 | 0.00 | 0.00 | 0.00 | 84 | 1058.6 |
| 20260505011919 | 48 | 22 | 3.0 | 0.0 | 0.00 | 0.00 | 0.00 | 84 | 1058.6 |
| 20260505011805 | 48 | 45 | 4.0 | 0.0 | 0.00 | 0.00 | 0.00 | 84 | 1058.6 |
| 20260505011652 | 48 | 0 | 5.0 | 0.0 | 0.00 | 0.00 | 0.00 | 84 | 1058.7 |
| 20260505011533 | 48 | 22 | 0.0 | 0.0 | 0.00 | 0.00 | 0.00 | 84 | 1058.7 |
| 20260505011424 | 48 | 22 | 0.0 | 0.0 | 0.00 | 0.00 | 0.00 | 84 | 1058.6 |
| 20260505011310 | 48 | 22 | 0.0 | 0.0 | 0.00 | 0.00 | 0.00 | 84 | 1058.7 |
| 20260505011147 | 48 | 45 | 4.0 | 0.0 | 0.00 | 0.00 | 0.00 | 84 | 1058.6 |
| 20260505011035 | 48 | 22 | 3.0 | 0.0 | 0.00 | 0.00 | 0.00 | 84 | 1058.6 |
| 20260505010927 | 48 | 0 | 3.0 | 0.0 | 0.00 | 0.00 | 0.00 | 84 | 1058.6 |
| 20260505010812 | 48 | 0 | 5.0 | 0.0 | 0.00 | 0.00 | 0.00 | 84 | 1058.6 |
| 20260505010652 | 48 | 22 | 3.0 | 0.0 | 0.00 | 0.00 | 0.00 | 84 | 1058.6 |
| 20260505010536 | 48 | 22 | 6.0 | 0.0 | 0.00 | 0.00 | 0.00 | 84 | 1058.7 |
| 20260505010422 | 48 | 0 | 3.0 | 0.0 | 0.00 | 0.00 | 0.00 | 84 | 1058.7 |
| 20260505010306 | 48 | 22 | 3.0 | 0.0 | 0.00 | 0.00 | 0.00 | 84 | 1058.6 |
| 20260505005925 | 48 | 22 | 7.0 | 0.0 | 0.00 | 0.00 | 0.00 | 84 | 1058.7 |
| 20260505005811 | 48 | 22 | 2.0 | 0.0 | 0.00 | 0.00 | 0.00 | 84 | 1058.7 |
| 20260505005648 | 48 | 0 | 4.0 | 0.0 | 0.00 | 0.00 | 0.00 | 84 | 1058.7 |
| 20260505005535 | 48 | 0 | 2.0 | 0.0 | 0.00 | 0.00 | 0.00 | 84 | 1058.7 |
| 20260505005430 | 48 | 22 | 2.0 | 0.0 | 0.00 | 0.00 | 0.00 | 84 | 1058.8 |
| 20260505005323 | 48 | 22 | 0.0 | 0.0 | 0.00 | 0.00 | 0.00 | 84 | 1058.8 |
| 20260505005218 | 48 | 45 | 0.0 | 0.0 | 0.00 | 0.00 | 0.00 | 84 | 1058.8 |
| 20260505005111 | 48 | 0 | 2.0 | 0.0 | 0.00 | 0.00 | 0.00 | 84 | 1058.8 |
| 20260505005005 | 48 | 0 | 6.0 | 0.0 | 0.00 | 0.00 | 0.00 | 84 | 1058.8 |
| 20260505004851 | 48 | 0 | 4.0 | 0.0 | 0.00 | 0.00 | 0.00 | 84 | 1058.8 |
| 20260505004728 | 48 | 22 | 6.0 | 0.0 | 0.00 | 0.00 | 0.00 | 84 | 1058.8 |
| 20260505004614 | 48 | 22 | 3.0 | 0.0 | 0.00 | 0.00 | 0.00 | 84 | 1058.8 |
| 20260505004453 | 48 | 22 | 4.0 | 0.0 | 0.00 | 0.00 | 0.00 | 84 | 1058.9 |
| 20260505004339 | 48 | 0 | 2.0 | 0.0 | 0.00 | 0.00 | 0.00 | 84 | 1058.8 |
| 20260505004224 | 48 | 0 | 4.0 | 0.0 | 0.00 | 0.00 | 0.00 | 84 | 1058.8 |
| 20260505004104 | 48 | 45 | 6.0 | 0.0 | 0.00 | 0.00 | 0.00 | 84 | 1058.8 |
| 20260505003951 | 48 | 0 | 0.0 | 0.0 | 0.00 | 0.00 | 0.00 | 84 | 1058.8 |
| 20260505003843 | 48 | 0 | 8.0 | 0.0 | 0.00 | 0.00 | 0.00 | 84 | 1058.8 |
| 20260505003729 | 48 | 22 | 3.0 | 0.0 | 0.00 | 0.00 | 0.00 | 84 | 1058.9 |
| 20260505003624 | 48 | 22 | 3.0 | 0.0 | 0.00 | 0.00 | 0.00 | 84 | 1058.9 |
| 20260505003517 | 48 | 0 | 0.0 | 0.0 | 0.00 | 0.00 | 0.00 | 84 | 1058.9 |
| 20260505003406 | 48 | 0 | 0.0 | 0.0 | 0.00 | 0.00 | 0.00 | 84 | 1058.8 |
| 20260505003257 | 48 | 0 | 0.0 | 0.0 | 0.00 | 0.00 | 0.00 | 84 | 1058.8 |
| 20260505003143 | 48 | 22 | 2.0 | 0.0 | 0.00 | 0.00 | 0.00 | 84 | 1058.8 |
| 20260505003031 | 48 | 0 | 6.0 | 0.0 | 0.00 | 0.00 | 0.00 | 84 | 1058.8 |
| 20260505002923 | 48 | 22 | 6.0 | 0.0 | 0.00 | 0.00 | 0.00 | 84 | 1058.8 |
| 20260505002809 | 48 | 22 | 2.0 | 0.0 | 0.00 | 0.00 | 0.00 | 84 | 1058.8 |
| 20260505002703 | 48 | 22 | 0.0 | 0.0 | 0.00 | 0.00 | 0.00 | 84 | 1058.8 |
| 20260505002557 | 48 | 45 | 6.0 | 0.0 | 0.00 | 0.00 | 0.00 | 84 | 1058.7 |
| 20260505002450 | 48 | 45 | 4.0 | 0.0 | 0.00 | 0.00 | 0.00 | 84 | 1058.8 |
| 20260505002320 | 48 | 22 | 5.0 | 0.0 | 0.00 | 0.00 | 0.00 | 84 | 1058.8 |
| 20260505002206 | 48 | 22 | 3.0 | 0.0 | 0.00 | 0.00 | 0.00 | 84 | 1058.7 |
| 20260505002100 | 48 | 0 | 3.0 | 0.0 | 0.00 | 0.00 | 0.00 | 84 | 1058.8 |
| 20260505001953 | 48 | 45 | 0.0 | 0.0 | 0.00 | 0.00 | 0.00 | 83 | 1058.8 |
| 20260505001841 | 48 | 22 | 8.0 | 0.0 | 0.00 | 0.00 | 0.00 | 84 | 1058.9 |
| 20260505001717 | 48 | 22 | 2.0 | 0.0 | 0.00 | 0.00 | 0.00 | 83 | 1058.8 |
| 20260505001603 | 48 | 0 | 6.0 | 0.0 | 0.00 | 0.00 | 0.00 | 84 | 1058.9 |
| 20260505001457 | 48 | 0 | 6.0 | 0.0 | 0.00 | 0.00 | 0.00 | 84 | 1058.9 |
| 20260505001350 | 48 | 22 | 3.0 | 0.0 | 0.00 | 0.00 | 0.00 | 84 | 1058.8 |
| 20260505001237 | 48 | 22 | 5.0 | 0.0 | 0.00 | 0.00 | 0.00 | 84 | 1058.9 |
| 20260505001114 | 48 | 22 | 4.0 | 0.0 | 0.00 | 0.00 | 0.00 | 84 | 1058.9 |
| 20260505001000 | 48 | 0 | 6.0 | 0.0 | 0.00 | 0.00 | 0.00 | 84 | 1058.9 |
| 20260505000854 | 48 | 337 | 6.0 | 0.0 | 0.00 | 0.00 | 0.00 | 84 | 1058.9 |
| 20260505000746 | 48 | 0 | 6.0 | 0.0 | 0.00 | 0.00 | 0.00 | 84 | 1059.0 |
| 20260505000633 | 48 | 22 | 5.0 | 0.0 | 0.00 | 0.00 | 0.00 | 84 | 1059.0 |
| 20260505000510 | 48 | 337 | 0.0 | 0.0 | 0.00 | 0.00 | 0.00 | 84 | 1059.0 |
| 20260505000358 | 48 | 22 | 7.0 | 0.0 | 0.00 | 0.00 | 0.00 | 83 | 1059.0 |
| 20260505000251 | 48 | 45 | 4.0 | 0.0 | 0.00 | 0.00 | 0.00 | 83 | 1059.0 |
| 20260505000145 | 48 | 22 | 4.0 | 0.0 | 0.00 | 0.00 | 0.00 | 83 | 1059.0 |
| 20260505000024 | 48 | 22 | 0.0 | 0.0 | 0.00 | 0.00 | 0.00 | 84 | 1059.0 |
| 20260504235910 | 48 | 22 | 6.0 | 0.0 | 0.00 | 0.00 | 0.00 | 84 | 1059.0 |
| 20260504235756 | 48 | 22 | 3.0 | 0.0 | 0.00 | 0.00 | 0.00 | 83 | 1059.0 |
| 20260504235651 | 48 | 22 | 4.0 | 0.0 | 0.00 | 0.00 | 0.00 | 84 | 1059.0 |
| 20260504235543 | 48 | 22 | 7.0 | 0.0 | 0.00 | 0.00 | 0.00 | 84 | 1059.0 |
| 20260504235424 | 48 | 0 | 6.0 | 0.0 | 0.00 | 0.00 | 0.00 | 84 | 1059.0 |
| 20260504235316 | 48 | 0 | 0.0 | 0.0 | 0.00 | 0.00 | 0.00 | 84 | 1059.1 |
| 20260504235203 | 48 | 22 | 4.0 | 0.0 | 0.00 | 0.00 | 0.00 | 84 | 1059.0 |
| 20260504235050 | 48 | 22 | 2.0 | 0.0 | 0.00 | 0.00 | 0.00 | 84 | 1059.1 |
| 20260504234945 | 48 | 0 | 6.0 | 0.0 | 0.00 | 0.00 | 0.00 | 84 | 1059.0 |
| 20260504234839 | 48 | 22 | 4.0 | 0.0 | 0.00 | 0.00 | 0.00 | 84 | 1059.1 |
| 20260504234733 | 48 | 22 | 6.0 | 0.0 | 0.00 | 0.00 | 0.00 | 84 | 1059.1 |
| 20260504234626 | 48 | 22 | 7.0 | 0.0 | 0.00 | 0.00 | 0.00 | 84 | 1059.0 |
| 20260504234458 | 48 | 45 | 7.0 | 0.0 | 0.00 | 0.00 | 0.00 | 84 | 1059.0 |
| 20260504234352 | 48 | 0 | 1.0 | 0.0 | 0.00 | 0.00 | 0.00 | 84 | 1059.1 |
| 20260504234238 | 48 | 45 | 4.0 | 0.0 | 0.00 | 0.00 | 0.00 | 84 | 1059.1 |
| 20260504234125 | 48 | 45 | 4.0 | 0.0 | 0.00 | 0.00 | 0.00 | 84 | 1059.1 |
| 20260504234012 | 48 | 22 | 4.0 | 0.0 | 0.00 | 0.00 | 0.00 | 84 | 1059.2 |
| 20260504233859 | 48 | 45 | 4.0 | 0.0 | 0.00 | 0.00 | 0.00 | 84 | 1059.1 |
| 20260504233745 | 48 | 22 | 6.0 | 0.0 | 0.00 | 0.00 | 0.00 | 84 | 1059.1 |
| 20260504233616 | 48 | 22 | 6.0 | 0.0 | 0.00 | 0.00 | 0.00 | 84 | 1059.2 |
| 20260504233503 | 48 | 45 | 0.0 | 0.0 | 0.00 | 0.00 | 0.00 | 84 | 1059.2 |
| 20260504233357 | 48 | 22 | 6.0 | 0.0 | 0.00 | 0.00 | 0.00 | 84 | 1059.2 |
| 20260504233251 | 48 | 22 | 4.0 | 0.0 | 0.00 | 0.00 | 0.00 | 84 | 1059.2 |
| 20260504233144 | 48 | 22 | 3.0 | 0.0 | 0.00 | 0.00 | 0.00 | 84 | 1059.2 |
| 20260504233014 | 48 | 22 | 5.0 | 0.0 | 0.00 | 0.00 | 0.00 | 84 | 1059.2 |
| 20260504232900 | 48 | 22 | 4.0 | 0.0 | 0.00 | 0.00 | 0.00 | 84 | 1059.3 |
| 20260504232754 | 48 | 45 | 5.0 | 0.0 | 0.00 | 0.00 | 0.00 | 84 | 1059.2 |
| 20260504232648 | 48 | 22 | 3.0 | 0.0 | 0.00 | 0.00 | 0.00 | 84 | 1059.2 |
| 20260504232533 | 48 | 22 | 4.0 | 0.0 | 0.00 | 0.00 | 0.00 | 84 | 1059.2 |
| 20260504232420 | 48 | 22 | 6.0 | 0.0 | 0.00 | 0.00 | 0.00 | 84 | 1059.3 |
| 20260504232316 | 48 | 0 | 0.0 | 0.0 | 0.00 | 0.00 | 0.00 | 84 | 1059.3 |
| 20260504232208 | 48 | 0 | 5.0 | 0.0 | 0.00 | 0.00 | 0.00 | 84 | 1059.2 |
| 20260504232047 | 48 | 22 | 5.0 | 0.0 | 0.00 | 0.00 | 0.00 | 84 | 1059.4 |
| 20260504231925 | 48 | 0 | 6.0 | 0.0 | 0.00 | 0.00 | 0.00 | 84 | 1059.3 |
| 20260504231811 | 48 | 0 | 0.0 | 0.0 | 0.00 | 0.00 | 0.00 | 84 | 1059.4 |
| 20260504231657 | 48 | 0 | 5.0 | 0.0 | 0.00 | 0.00 | 0.00 | 84 | 1059.4 |
| 20260504231551 | 48 | 22 | 4.0 | 0.0 | 0.00 | 0.00 | 0.00 | 84 | 1059.4 |
| 20260504231437 | 48 | 22 | 7.0 | 0.0 | 0.00 | 0.00 | 0.00 | 84 | 1059.4 |
| 20260504231315 | 48 | 45 | 2.0 | 0.0 | 0.00 | 0.00 | 0.00 | 84 | 1059.4 |
| 20260504231204 | 48 | 22 | 6.0 | 0.0 | 0.00 | 0.00 | 0.00 | 84 | 1059.5 |
| 20260504231050 | 48 | 22 | 5.0 | 0.0 | 0.00 | 0.00 | 0.00 | 84 | 1059.4 |
| 20260504230946 | 48 | 22 | 2.0 | 0.0 | 0.00 | 0.00 | 0.00 | 84 | 1059.5 |
| 20260504230842 | 48 | 22 | 11.0 | 0.0 | 0.00 | 0.00 | 0.00 | 84 | 1059.5 |
| 20260504230734 | 48 | 0 | 6.0 | 0.0 | 0.00 | 0.00 | 0.00 | 84 | 1059.4 |
| 20260504230612 | 48 | 22 | 3.0 | 0.0 | 0.00 | 0.00 | 0.00 | 84 | 1059.5 |
| 20260504230500 | 48 | 22 | 2.0 | 0.0 | 0.00 | 0.00 | 0.00 | 84 | 1059.6 |
| 20260504230346 | 48 | 0 | 5.0 | 0.0 | 0.00 | 0.00 | 0.00 | 84 | 1059.5 |
| 20260504230226 | 48 | 45 | 0.0 | 0.0 | 0.00 | 0.00 | 0.00 | 84 | 1059.6 |
| 20260504230113 | 48 | 67 | 0.0 | 0.0 | 0.00 | 0.00 | 0.00 | 84 | 1059.6 |
| 20260504230008 | 48 | 22 | 2.0 | 0.0 | 0.00 | 0.00 | 0.00 | 84 | 1059.6 |
| 20260504225857 | 48 | 22 | 2.0 | 0.0 | 0.00 | 0.00 | 0.00 | 84 | 1059.6 |
| 20260504225750 | 48 | 45 | 5.0 | 0.0 | 0.00 | 0.00 | 0.00 | 84 | 1059.6 |
| 20260504225645 | 48 | 22 | 6.0 | 0.0 | 0.00 | 0.00 | 0.00 | 84 | 1059.6 |
| 20260504225532 | 48 | 22 | 3.0 | 0.0 | 0.00 | 0.00 | 0.00 | 84 | 1059.6 |
| 20260504225426 | 48 | 22 | 0.0 | 0.0 | 0.00 | 0.00 | 0.00 | 84 | 1059.6 |
| 20260504225314 | 48 | 45 | 6.0 | 0.0 | 0.00 | 0.00 | 0.00 | 84 | 1059.6 |
| 20260504225201 | 48 | 45 | 5.0 | 0.0 | 0.00 | 0.00 | 0.00 | 84 | 1059.7 |
| 20260504225055 | 48 | 45 | 0.0 | 0.0 | 0.00 | 0.00 | 0.00 | 84 | 1059.7 |
| 20260504224950 | 48 | 45 | 0.0 | 0.0 | 0.00 | 0.00 | 0.00 | 84 | 1059.7 |
| 20260504224831 | 48 | 45 | 4.0 | 0.0 | 0.00 | 0.00 | 0.00 | 84 | 1059.6 |
| 20260504224724 | 48 | 22 | 4.0 | 0.0 | 0.00 | 0.00 | 0.00 | 84 | 1059.6 |
| 20260504224602 | 48 | 45 | 2.0 | 0.0 | 0.00 | 0.00 | 0.00 | 84 | 1059.7 |
| 20260504224449 | 48 | 67 | 3.0 | 0.0 | 0.00 | 0.00 | 0.00 | 84 | 1059.7 |
| 20260504224336 | 48 | 67 | 1.0 | 0.0 | 0.00 | 0.00 | 0.00 | 84 | 1059.7 |
| 20260504224214 | 48 | 22 | 4.0 | 0.0 | 0.00 | 0.00 | 0.00 | 84 | 1059.7 |
| 20260504224046 | 48 | 22 | 6.0 | 0.0 | 0.00 | 0.00 | 0.00 | 84 | 1059.7 |
| 20260504223935 | 48 | 45 | 2.0 | 0.0 | 0.00 | 0.00 | 0.00 | 84 | 1059.7 |
| 20260504223827 | 48 | 45 | 6.0 | 0.0 | 0.00 | 0.00 | 0.00 | 84 | 1059.7 |
| 20260504223716 | 48 | 67 | 0.0 | 0.0 | 0.00 | 0.00 | 0.00 | 84 | 1059.7 |
| 20260504223609 | 48 | 45 | 4.0 | 0.0 | 0.00 | 0.00 | 0.00 | 84 | 1059.7 |
| 20260504223456 | 48 | 22 | 5.0 | 0.0 | 0.00 | 0.00 | 0.00 | 84 | 1059.7 |
| 20260504223343 | 48 | 90 | 2.0 | 0.0 | 0.00 | 0.00 | 0.00 | 84 | 1059.7 |
| 20260504223233 | 48 | 45 | 5.0 | 0.0 | 0.00 | 0.00 | 0.00 | 84 | 1059.7 |
| 20260504223126 | 48 | 22 | 9.0 | 0.0 | 0.00 | 0.00 | 0.00 | 84 | 1059.7 |
| 20260504223019 | 48 | 45 | 0.0 | 0.0 | 0.00 | 0.00 | 0.00 | 84 | 1059.7 |
| 20260504222901 | 48 | 45 | 3.0 | 0.0 | 0.00 | 0.00 | 0.00 | 84 | 1059.7 |
| 20260504222752 | 48 | 67 | 4.0 | 0.0 | 0.00 | 0.00 | 0.00 | 84 | 1059.7 |
| 20260504222633 | 48 | 67 | 6.0 | 0.0 | 0.00 | 0.00 | 0.00 | 84 | 1059.7 |
| 20260504222527 | 48 | 45 | 7.0 | 0.0 | 0.00 | 0.00 | 0.00 | 84 | 1059.6 |
| 20260504222414 | 48 | 22 | 2.0 | 0.0 | 0.00 | 0.00 | 0.00 | 84 | 1059.6 |
| 20260504222301 | 48 | 22 | 0.0 | 0.0 | 0.00 | 0.00 | 0.00 | 84 | 1059.7 |
| 20260504222148 | 48 | 22 | 6.0 | 0.0 | 0.00 | 0.00 | 0.00 | 84 | 1059.7 |
| 20260504222027 | 48 | 22 | 5.0 | 0.0 | 0.00 | 0.00 | 0.00 | 84 | 1059.7 |
| 20260504221914 | 48 | 22 | 5.0 | 0.0 | 0.00 | 0.00 | 0.00 | 84 | 1059.7 |
| 20260504221752 | 48 | 45 | 2.0 | 0.0 | 0.00 | 0.00 | 0.00 | 84 | 1059.7 |
| 20260504221633 | 48 | 45 | 10.0 | 0.0 | 0.00 | 0.00 | 0.00 | 84 | 1059.6 |
| 20260504221527 | 48 | 22 | 6.0 | 0.0 | 0.00 | 0.00 | 0.00 | 84 | 1059.6 |
| 20260504221414 | 48 | 22 | 4.0 | 0.0 | 0.00 | 0.00 | 0.00 | 84 | 1059.5 |
| 20260504221259 | 48 | 45 | 3.0 | 0.0 | 0.00 | 0.00 | 0.00 | 84 | 1059.6 |
| 20260504221131 | 48 | 22 | 6.0 | 0.0 | 0.00 | 0.00 | 0.00 | 84 | 1059.7 |
| 20260504220953 | 48 | 22 | 4.0 | 0.0 | 0.00 | 0.00 | 0.00 | 84 | 1059.6 |
| 20260504220840 | 48 | 45 | 4.0 | 0.0 | 0.00 | 0.00 | 0.00 | 84 | 1059.7 |
| 20260504220735 | 48 | 45 | 7.0 | 0.0 | 0.00 | 0.00 | 0.00 | 84 | 1059.7 |
| 20260504220614 | 48 | 45 | 5.0 | 0.0 | 0.00 | 0.00 | 0.00 | 84 | 1059.7 |
| 20260504220500 | 48 | 0 | 7.0 | 0.0 | 0.00 | 0.00 | 0.00 | 84 | 1059.7 |
| 20260504220348 | 48 | 315 | 7.0 | 0.0 | 0.00 | 0.00 | 0.00 | 84 | 1059.7 |
| 20260504220234 | 48 | 45 | 6.0 | 0.0 | 0.00 | 0.00 | 0.00 | 84 | 1059.8 |
| 20260504220116 | 48 | 0 | 4.0 | 0.0 | 0.00 | 0.00 | 0.00 | 85 | 1059.7 |
| 20260504220008 | 48 | 22 | 4.0 | 0.0 | 0.00 | 0.00 | 0.00 | 85 | 1059.8 |
| 20260504215855 | 48 | 22 | 6.0 | 0.0 | 0.00 | 0.00 | 0.00 | 85 | 1059.8 |
| 20260504215750 | 48 | 22 | 0.0 | 0.0 | 0.00 | 0.00 | 0.00 | 85 | 1059.8 |
| 20260504215621 | 48 | 45 | 5.0 | 0.0 | 0.00 | 0.00 | 0.00 | 85 | 1059.8 |
| 20260504215508 | 48 | 45 | 6.0 | 0.0 | 0.00 | 0.00 | 0.00 | 85 | 1059.8 |
| 20260504215356 | 48 | 45 | 0.0 | 0.0 | 0.00 | 0.00 | 0.00 | 85 | 1059.9 |
| 20260504215241 | 48 | 67 | 4.0 | 0.0 | 0.00 | 0.00 | 0.00 | 85 | 1059.9 |
| 20260504215129 | 48 | 22 | 4.0 | 0.0 | 0.00 | 0.00 | 0.00 | 85 | 1059.9 |
| 20260504215016 | 48 | 67 | 4.0 | 0.0 | 0.00 | 0.00 | 0.00 | 85 | 1059.9 |
| 20260504214910 | 48 | 22 | 4.0 | 0.0 | 0.00 | 0.00 | 0.00 | 85 | 1059.8 |
| 20260504214741 | 48 | 22 | 3.0 | 0.0 | 0.00 | 0.00 | 0.00 | 85 | 1059.9 |
| 20260504214619 | 48 | 0 | 4.0 | 0.0 | 0.00 | 0.00 | 0.00 | 85 | 1059.9 |
| 20260504214458 | 48 | 22 | 2.0 | 0.0 | 0.00 | 0.00 | 0.00 | 85 | 1059.9 |
| 20260504214345 | 48 | 45 | 6.0 | 0.0 | 0.00 | 0.00 | 0.00 | 85 | 1059.9 |
| 20260504214224 | 48 | 22 | 0.0 | 0.0 | 0.00 | 0.00 | 0.00 | 85 | 1059.9 |
| 20260504214111 | 49 | 45 | 3.0 | 0.0 | 0.00 | 0.00 | 0.00 | 85 | 1059.9 |
| 20260504213957 | 48 | 22 | 5.0 | 0.0 | 0.00 | 0.00 | 0.00 | 85 | 1059.9 |
| 20260504213838 | 48 | 67 | 5.0 | 0.0 | 0.00 | 0.00 | 0.00 | 85 | 1059.9 |
| 20260504213732 | 49 | 45 | 0.0 | 0.0 | 0.00 | 0.00 | 0.00 | 85 | 1059.9 |
| 20260504213618 | 49 | 22 | 6.0 | 0.0 | 0.00 | 0.00 | 0.00 | 85 | 1059.9 |
| 20260504213459 | 49 | 22 | 8.0 | 0.0 | 0.00 | 0.00 | 0.00 | 84 | 1059.9 |
| 20260504213353 | 48 | 45 | 4.0 | 0.0 | 0.00 | 0.00 | 0.00 | 84 | 1059.9 |
| 20260504213247 | 49 | 45 | 2.0 | 0.0 | 0.00 | 0.00 | 0.00 | 84 | 1059.9 |
| 20260504213134 | 49 | 0 | 0.0 | 0.0 | 0.00 | 0.00 | 0.00 | 84 | 1059.9 |
| 20260504213021 | 49 | 45 | 2.0 | 0.0 | 0.00 | 0.00 | 0.00 | 84 | 1059.9 |
| 20260504212859 | 49 | 45 | 3.0 | 0.0 | 0.00 | 0.00 | 0.00 | 84 | 1059.9 |
| 20260504212738 | 49 | 45 | 8.0 | 0.0 | 0.00 | 0.00 | 0.00 | 84 | 1059.9 |
| 20260504212625 | 48 | 22 | 0.0 | 0.0 | 0.00 | 0.00 | 0.00 | 84 | 1060.0 |
| 20260504212512 | 49 | 22 | 3.0 | 0.0 | 0.00 | 0.00 | 0.00 | 84 | 1059.9 |
| 20260504212350 | 49 | 22 | 6.0 | 0.0 | 0.00 | 0.00 | 0.00 | 84 | 1059.9 |
| 20260504212221 | 49 | 337 | 6.0 | 0.0 | 0.00 | 0.00 | 0.00 | 84 | 1060.0 |
| 20260504212101 | 49 | 22 | 1.0 | 0.0 | 0.00 | 0.00 | 0.00 | 84 | 1060.0 |
| 20260504211955 | 49 | 22 | 4.0 | 0.0 | 0.00 | 0.00 | 0.00 | 84 | 1060.0 |
| 20260504211850 | 49 | 22 | 5.0 | 0.0 | 0.00 | 0.00 | 0.00 | 84 | 1060.0 |
| 20260504211729 | 49 | 22 | 5.0 | 0.0 | 0.00 | 0.00 | 0.00 | 84 | 1059.9 |
| 20260504211608 | 49 | 0 | 6.0 | 0.0 | 0.00 | 0.00 | 0.00 | 84 | 1060.0 |
| 20260504211504 | 49 | 22 | 2.0 | 0.0 | 0.00 | 0.00 | 0.00 | 84 | 1060.0 |
| 20260504211358 | 49 | 22 | 6.0 | 0.0 | 0.00 | 0.00 | 0.00 | 84 | 1060.0 |
| 20260504211254 | 49 | 22 | 2.0 | 0.0 | 0.00 | 0.00 | 0.00 | 84 | 1060.0 |
| 20260504211147 | 49 | 22 | 2.0 | 0.0 | 0.00 | 0.00 | 0.00 | 84 | 1060.0 |
| 20260504211021 | 49 | 22 | 2.0 | 0.0 | 0.00 | 0.00 | 0.00 | 84 | 1059.9 |
| 20260504210913 | 49 | 45 | 5.0 | 0.0 | 0.00 | 0.00 | 0.00 | 84 | 1059.9 |
| 20260504210801 | 49 | 22 | 5.0 | 0.0 | 0.00 | 0.00 | 0.00 | 84 | 1060.0 |
| 20260504210656 | 49 | 22 | 4.0 | 0.0 | 0.00 | 0.00 | 0.00 | 84 | 1060.0 |
| 20260504210550 | 49 | 0 | 4.0 | 0.0 | 0.00 | 0.00 | 0.00 | 84 | 1059.9 |
| 20260504210436 | 49 | 0 | 5.0 | 0.0 | 0.00 | 0.00 | 0.00 | 85 | 1059.9 |
| 20260504210318 | 49 | 22 | 5.0 | 0.0 | 0.00 | 0.00 | 0.00 | 85 | 1059.9 |
| 20260504210210 | 49 | 22 | 4.0 | 0.0 | 0.00 | 0.00 | 0.00 | 85 | 1059.9 |
| 20260504210041 | 48 | 0 | 4.0 | 0.0 | 0.00 | 0.00 | 0.00 | 85 | 1059.9 |
| 20260504205920 | 49 | 0 | 5.0 | 0.0 | 0.00 | 0.00 | 0.00 | 85 | 1059.8 |
| 20260504205809 | 48 | 0 | 4.0 | 0.0 | 0.00 | 0.00 | 0.00 | 85 | 1059.9 |
| 20260504205701 | 49 | 22 | 1.0 | 0.0 | 0.00 | 0.00 | 0.00 | 85 | 1059.9 |
| 20260504205542 | 49 | 0 | 7.0 | 0.0 | 0.00 | 0.00 | 0.00 | 85 | 1059.9 |
| 20260504205435 | 48 | 45 | 4.0 | 0.0 | 0.00 | 0.00 | 0.00 | 85 | 1059.8 |
| 20260504205325 | 48 | 22 | 6.0 | 0.0 | 0.00 | 0.00 | 0.00 | 85 | 1059.8 |
| 20260504205218 | 48 | 22 | 5.0 | 0.0 | 0.00 | 0.00 | 0.00 | 85 | 1059.9 |
| 20260504205113 | 48 | 45 | 2.0 | 0.0 | 0.00 | 0.00 | 0.00 | 85 | 1059.9 |
| 20260504205001 | 48 | 22 | 4.0 | 0.0 | 0.00 | 0.00 | 0.00 | 85 | 1059.8 |
| 20260504204839 | 48 | 22 | 4.0 | 0.0 | 0.00 | 0.00 | 0.00 | 85 | 1059.9 |
| 20260504204726 | 48 | 22 | 8.0 | 0.0 | 0.00 | 0.00 | 0.00 | 85 | 1059.9 |
| 20260504204612 | 48 | 22 | 0.0 | 0.0 | 0.00 | 0.00 | 0.00 | 85 | 1059.8 |
| 20260504204451 | 48 | 22 | 3.0 | 0.0 | 0.00 | 0.00 | 0.00 | 85 | 1059.9 |
| 20260504204338 | 48 | 22 | 0.0 | 0.0 | 0.00 | 0.00 | 0.00 | 85 | 1059.9 |
| 20260504204234 | 48 | 0 | 3.0 | 0.0 | 0.00 | 0.00 | 0.00 | 85 | 1059.9 |
| 20260504204127 | 48 | 45 | 7.0 | 0.0 | 0.00 | 0.00 | 0.00 | 85 | 1059.7 |
| 20260504204006 | 48 | 22 | 5.0 | 0.0 | 0.00 | 0.00 | 0.00 | 85 | 1059.8 |
| 20260504203845 | 48 | 45 | 4.0 | 0.0 | 0.00 | 0.00 | 0.00 | 85 | 1059.8 |
| 20260504203724 | 48 | 22 | 2.0 | 0.0 | 0.00 | 0.00 | 0.00 | 85 | 1059.7 |
| 20260504203621 | 48 | 90 | 0.0 | 0.0 | 0.00 | 0.00 | 0.00 | 85 | 1059.8 |
| 20260504203506 | 48 | 45 | 4.0 | 0.0 | 0.00 | 0.00 | 0.00 | 86 | 1059.8 |
| 20260504203353 | 48 | 45 | 5.0 | 0.0 | 0.00 | 0.00 | 0.00 | 86 | 1059.7 |
| 20260504203248 | 48 | 22 | 3.0 | 0.0 | 0.00 | 0.00 | 0.00 | 86 | 1059.8 |
| 20260504203126 | 48 | 22 | 3.0 | 0.0 | 0.00 | 0.00 | 0.00 | 86 | 1059.8 |
| 20260504203006 | 48 | 22 | 6.0 | 0.0 | 0.00 | 0.00 | 0.00 | 86 | 1059.7 |
| 20260504202852 | 48 | 22 | 7.0 | 0.0 | 0.00 | 0.00 | 0.00 | 86 | 1059.7 |
| 20260504202730 | 48 | 0 | 2.0 | 0.0 | 0.00 | 0.00 | 0.00 | 86 | 1059.8 |
| 20260504202609 | 48 | 45 | 3.0 | 0.0 | 0.00 | 0.00 | 0.00 | 87 | 1059.8 |
| 20260504202448 | 48 | 45 | 0.0 | 0.0 | 0.00 | 0.00 | 0.00 | 87 | 1059.8 |
| 20260504202335 | 48 | 22 | 6.0 | 0.0 | 0.00 | 0.00 | 0.00 | 87 | 1059.8 |
| 20260504202232 | 48 | 45 | 3.0 | 0.0 | 0.00 | 0.00 | 0.00 | 87 | 1059.8 |
| 20260504202125 | 48 | 22 | 7.0 | 0.0 | 0.00 | 0.00 | 0.00 | 87 | 1059.8 |
| 20260504202005 | 48 | 22 | 0.0 | 0.0 | 0.00 | 0.00 | 0.00 | 87 | 1059.9 |
| 20260504201901 | 48 | 22 | 2.0 | 0.0 | 0.00 | 0.00 | 0.00 | 87 | 1059.9 |
| 20260504201755 | 48 | 45 | 3.0 | 0.0 | 0.00 | 0.00 | 0.00 | 87 | 1059.9 |
| 20260504201649 | 48 | 45 | 6.0 | 0.0 | 0.00 | 0.00 | 0.00 | 87 | 1059.9 |
| 20260504201538 | 48 | 22 | 9.0 | 0.0 | 0.00 | 0.00 | 0.00 | 87 | 1059.8 |
| 20260504201431 | 48 | 22 | 4.0 | 0.0 | 0.00 | 0.00 | 0.00 | 87 | 1059.9 |
| 20260504201318 | 48 | 22 | 8.0 | 0.0 | 0.00 | 0.00 | 0.00 | 87 | 1059.9 |
| 20260504201213 | 48 | 22 | 1.0 | 0.0 | 0.00 | 0.00 | 0.00 | 87 | 1059.9 |
| 20260504201100 | 48 | 22 | 3.0 | 0.0 | 0.00 | 0.00 | 0.00 | 87 | 1059.9 |
| 20260504200938 | 48 | 22 | 6.0 | 0.0 | 0.00 | 0.00 | 0.00 | 87 | 1059.8 |
| 20260504200817 | 48 | 45 | 3.0 | 0.0 | 0.00 | 0.00 | 0.00 | 87 | 1059.8 |
| 20260504200656 | 48 | 67 | 3.0 | 0.0 | 0.00 | 0.00 | 0.00 | 87 | 1059.8 |
| 20260504200543 | 48 | 45 | 3.0 | 0.0 | 0.00 | 0.00 | 0.00 | 87 | 1059.8 |
| 20260504200437 | 48 | 22 | 7.0 | 0.0 | 0.00 | 0.00 | 0.00 | 87 | 1059.7 |
| 20260504200309 | 48 | 22 | 0.0 | 0.0 | 0.00 | 0.00 | 0.00 | 87 | 1059.7 |
| 20260504200206 | 48 | 0 | 5.0 | 0.0 | 0.00 | 0.00 | 0.00 | 87 | 1059.6 |
| 20260504200058 | 48 | 0 | 3.0 | 0.0 | 0.00 | 0.00 | 0.00 | 87 | 1059.7 |
| 20260504195937 | 48 | 45 | 4.0 | 0.0 | 0.00 | 0.00 | 0.00 | 87 | 1059.6 |
| 20260504195824 | 48 | 22 | 7.0 | 0.0 | 0.00 | 0.00 | 0.00 | 87 | 1059.7 |
| 20260504195703 | 48 | 22 | 6.0 | 0.0 | 0.00 | 0.00 | 0.00 | 87 | 1059.6 |
| 20260504195558 | 48 | 45 | 3.0 | 0.0 | 0.00 | 0.00 | 0.00 | 87 | 1059.6 |
| 20260504195445 | 48 | 45 | 7.0 | 0.0 | 0.00 | 0.00 | 0.00 | 87 | 1059.7 |
| 20260504195340 | 48 | 22 | 5.0 | 0.0 | 0.00 | 0.00 | 0.00 | 87 | 1059.7 |
| 20260504195227 | 48 | 45 | 9.0 | 0.0 | 0.00 | 0.00 | 0.00 | 87 | 1059.6 |
| 20260504195113 | 48 | 45 | 6.0 | 0.0 | 0.00 | 0.00 | 0.00 | 88 | 1059.6 |
| 20260504195000 | 48 | 22 | 3.0 | 0.0 | 0.00 | 0.00 | 0.00 | 88 | 1059.6 |
| 20260504194839 | 48 | 0 | 5.0 | 0.0 | 0.00 | 0.00 | 0.00 | 88 | 1059.7 |
| 20260504194717 | 48 | 45 | 0.0 | 0.0 | 0.00 | 0.00 | 0.00 | 88 | 1059.6 |
| 20260504194549 | 48 | 45 | 9.0 | 0.0 | 0.00 | 0.00 | 0.00 | 88 | 1059.7 |
| 20260504194446 | 48 | 22 | 5.0 | 0.0 | 0.00 | 0.00 | 0.00 | 88 | 1059.6 |
| 20260504194340 | 48 | 22 | 5.0 | 0.0 | 0.00 | 0.00 | 0.00 | 88 | 1059.6 |
| 20260504194235 | 48 | 22 | 5.0 | 0.0 | 0.00 | 0.00 | 0.00 | 88 | 1059.6 |
| 20260504194128 | 48 | 22 | 3.0 | 0.0 | 0.00 | 0.00 | 0.00 | 88 | 1059.7 |
| 20260504194016 | 48 | 45 | 6.0 | 0.0 | 0.00 | 0.00 | 0.00 | 88 | 1059.6 |
| 20260504193910 | 48 | 0 | 6.0 | 0.0 | 0.00 | 0.00 | 0.00 | 88 | 1059.6 |
| 20260504193751 | 48 | 45 | 4.0 | 0.0 | 0.00 | 0.00 | 0.00 | 88 | 1059.6 |
| 20260504193645 | 48 | 22 | 2.0 | 0.0 | 0.00 | 0.00 | 0.00 | 88 | 1059.5 |
| 20260504193531 | 48 | 22 | 4.0 | 0.0 | 0.00 | 0.00 | 0.00 | 87 | 1059.6 |
| 20260504193410 | 48 | 22 | 5.0 | 0.0 | 0.00 | 0.00 | 0.00 | 87 | 1059.5 |
| 20260504193304 | 47 | 22 | 0.0 | 0.0 | 0.00 | 0.00 | 0.00 | 87 | 1059.5 |
| 20260504193143 | 47 | 67 | 3.0 | 0.0 | 0.00 | 0.00 | 0.00 | 87 | 1059.6 |
| 20260504192926 | 47 | 22 | 0.0 | 0.0 | 0.00 | 0.00 | 0.00 | 87 | 1059.5 |
| 20260504192821 | 47 | 45 | 4.0 | 0.0 | 0.00 | 0.00 | 0.00 | 86 | 1059.5 |
| 20260504192715 | 47 | 0 | 4.0 | 0.0 | 0.00 | 0.00 | 0.00 | 86 | 1059.5 |
| 20260504192602 | 47 | 22 | 0.0 | 0.0 | 0.00 | 0.00 | 0.00 | 86 | 1059.4 |
| 20260504192441 | 47 | 45 | 6.0 | 0.0 | 0.00 | 0.00 | 0.00 | 86 | 1059.4 |
| 20260504192328 | 47 | 45 | 0.0 | 0.0 | 0.00 | 0.00 | 0.00 | 86 | 1059.3 |
| 20260504192215 | 47 | 22 | 0.0 | 0.0 | 0.00 | 0.00 | 0.00 | 86 | 1059.4 |
| 20260504192102 | 47 | 22 | 4.0 | 0.0 | 0.00 | 0.00 | 0.00 | 86 | 1059.4 |
| 20260504191957 | 47 | 45 | 5.0 | 0.0 | 0.00 | 0.00 | 0.00 | 86 | 1059.4 |
| 20260504191844 | 47 | 45 | 0.0 | 0.0 | 0.00 | 0.00 | 0.00 | 86 | 1059.3 |
| 20260504191730 | 47 | 45 | 2.0 | 0.0 | 0.00 | 0.00 | 0.00 | 85 | 1059.4 |
| 20260504191619 | 47 | 22 | 4.0 | 0.0 | 0.00 | 0.00 | 0.00 | 85 | 1059.4 |
| 20260504191512 | 48 | 22 | 0.0 | 0.0 | 0.00 | 0.00 | 0.00 | 85 | 1059.4 |
| 20260504191358 | 48 | 45 | 0.0 | 0.0 | 0.00 | 0.00 | 0.00 | 85 | 1059.4 |
| 20260504191229 | 48 | 45 | 3.0 | 0.0 | 0.00 | 0.00 | 0.00 | 85 | 1059.4 |
| 20260504191109 | 48 | 45 | 0.0 | 0.0 | 0.00 | 0.00 | 0.00 | 85 | 1059.4 |
| 20260504190955 | 48 | 45 | 0.0 | 0.0 | 0.00 | 0.00 | 0.00 | 85 | 1059.4 |
| 20260504190826 | 48 | 22 | 4.0 | 0.0 | 0.00 | 0.00 | 0.00 | 84 | 1059.4 |
| 20260504190713 | 48 | 22 | 5.0 | 0.0 | 0.00 | 0.00 | 0.00 | 84 | 1059.3 |
| 20260504190607 | 48 | 45 | 0.0 | 0.0 | 0.00 | 0.00 | 0.00 | 84 | 1059.2 |
| 20260504190455 | 48 | 0 | 2.0 | 0.0 | 0.00 | 0.00 | 0.00 | 84 | 1059.3 |
| 20260504190349 | 48 | 22 | 0.0 | 0.0 | 0.00 | 0.00 | 0.00 | 84 | 1059.4 |
| 20260504190228 | 48 | 22 | 2.0 | 0.0 | 0.00 | 0.00 | 0.00 | 84 | 1059.3 |
| 20260504190114 | 48 | 45 | 2.0 | 0.0 | 0.00 | 0.00 | 0.00 | 84 | 1059.4 |
| 20260504190008 | 49 | 22 | 4.0 | 0.0 | 0.00 | 0.00 | 0.00 | 84 | 1059.3 |
| 20260504185853 | 49 | 0 | 6.0 | 0.0 | 0.00 | 0.00 | 0.00 | 84 | 1059.4 |
| 20260504185739 | 49 | 45 | 0.0 | 0.0 | 0.00 | 0.00 | 0.00 | 83 | 1059.4 |
| 20260504185608 | 49 | 22 | 6.0 | 0.0 | 0.00 | 0.00 | 0.00 | 83 | 1059.3 |
| 20260504185449 | 49 | 0 | 5.0 | 0.0 | 0.00 | 0.00 | 0.00 | 83 | 1059.3 |
| 20260504185340 | 49 | 45 | 6.0 | 0.0 | 0.00 | 0.00 | 0.00 | 83 | 1059.4 |
| 20260504185226 | 49 | 22 | 6.0 | 0.0 | 0.00 | 0.00 | 0.00 | 83 | 1059.3 |
| 20260504185120 | 49 | 45 | 6.0 | 0.0 | 0.00 | 0.00 | 0.00 | 83 | 1059.3 |
| 20260504185013 | 49 | 67 | 5.0 | 0.0 | 0.00 | 0.00 | 0.00 | 82 | 1059.3 |
| 20260504184901 | 49 | 45 | 3.0 | 0.0 | 0.00 | 0.00 | 0.00 | 82 | 1059.3 |
| 20260504184754 | 50 | 67 | 0.0 | 0.0 | 0.00 | 0.00 | 0.00 | 82 | 1059.4 |
| 20260504184633 | 50 | 45 | 6.0 | 0.0 | 0.00 | 0.00 | 0.00 | 81 | 1059.3 |
| 20260504184512 | 50 | 45 | 2.0 | 0.0 | 0.00 | 0.00 | 0.00 | 81 | 1059.3 |
| 20260504184352 | 50 | 45 | 2.0 | 0.0 | 0.00 | 0.00 | 0.00 | 81 | 1059.3 |
| 20260504184246 | 50 | 45 | 4.0 | 0.0 | 0.00 | 0.00 | 0.00 | 81 | 1059.3 |
| 20260504184132 | 50 | 45 | 3.0 | 0.0 | 0.00 | 0.00 | 0.00 | 80 | 1059.3 |
| 20260504184028 | 50 | 45 | 4.0 | 0.0 | 0.00 | 0.00 | 0.00 | 80 | 1059.3 |
| 20260504183922 | 51 | 45 | 4.0 | 0.0 | 0.00 | 0.00 | 0.00 | 80 | 1059.3 |
| 20260504183816 | 51 | 22 | 7.0 | 0.0 | 0.00 | 0.00 | 0.00 | 80 | 1059.2 |
| 20260504183648 | 51 | 67 | 3.0 | 0.0 | 0.00 | 0.00 | 0.00 | 79 | 1059.2 |
| 20260504183545 | 51 | 0 | 0.0 | 0.0 | 0.00 | 0.00 | 0.00 | 79 | 1059.1 |
| 20260504183439 | 51 | 45 | 5.0 | 0.0 | 0.00 | 0.00 | 0.00 | 79 | 1059.2 |
| 20260504183333 | 51 | 22 | 5.0 | 0.0 | 0.00 | 0.00 | 0.00 | 79 | 1059.1 |
| 20260504183227 | 51 | 0 | 5.0 | 0.0 | 0.00 | 0.00 | 0.00 | 79 | 1059.1 |
| 20260504183117 | 52 | 45 | 1.0 | 0.0 | 0.00 | 0.00 | 0.00 | 79 | 1059.2 |
| 20260504183009 | 52 | 90 | 0.0 | 0.0 | 0.00 | 0.00 | 0.00 | 79 | 1059.2 |
| 20260504182848 | 52 | 45 | 4.0 | 0.0 | 0.00 | 0.00 | 0.00 | 78 | 1059.2 |
| 20260504182719 | 52 | 67 | 5.0 | 0.0 | 0.00 | 0.00 | 0.00 | 78 | 1059.2 |
| 20260504182557 | 52 | 22 | 2.0 | 0.0 | 0.00 | 0.00 | 0.00 | 78 | 1059.2 |
| 20260504182444 | 52 | 0 | 2.0 | 0.0 | 0.00 | 0.00 | 0.00 | 78 | 1059.1 |
| 20260504182338 | 52 | 45 | 2.0 | 0.0 | 0.00 | 0.00 | 0.00 | 78 | 1059.2 |
| 20260504182233 | 52 | 22 | 4.0 | 0.0 | 0.00 | 0.00 | 0.00 | 78 | 1059.2 |
| 20260504182126 | 52 | 67 | 5.0 | 0.0 | 0.00 | 0.00 | 0.00 | 78 | 1059.3 |
| 20260504182019 | 52 | 0 | 0.0 | 0.0 | 0.00 | 0.00 | 0.00 | 78 | 1059.2 |
| 20260504181906 | 52 | 22 | 4.0 | 0.0 | 0.00 | 0.00 | 0.00 | 77 | 1059.2 |
| 20260504181743 | 52 | 45 | 3.0 | 0.0 | 0.00 | 0.00 | 0.00 | 77 | 1059.1 |
| 20260504181629 | 52 | 67 | 7.0 | 0.0 | 0.00 | 0.00 | 0.00 | 78 | 1059.1 |
| 20260504181506 | 52 | 67 | 4.0 | 0.0 | 0.00 | 0.00 | 0.00 | 78 | 1059.1 |
| 20260504181353 | 52 | 45 | 4.0 | 0.0 | 0.00 | 0.00 | 0.00 | 78 | 1059.2 |
| 20260504181239 | 52 | 45 | 9.0 | 0.0 | 0.00 | 0.00 | 0.00 | 78 | 1059.1 |
| 20260504181125 | 52 | 67 | 6.0 | 0.0 | 0.00 | 0.00 | 0.00 | 78 | 1059.1 |
| 20260504181010 | 52 | 22 | 6.0 | 0.0 | 0.00 | 0.00 | 0.00 | 78 | 1059.1 |
| 20260504180855 | 52 | 0 | 11.0 | 0.0 | 0.00 | 0.00 | 0.00 | 78 | 1059.1 |
| 20260504180741 | 52 | 337 | 3.0 | 0.0 | 0.00 | 0.00 | 0.00 | 78 | 1059.1 |
| 20260504180635 | 52 | 0 | 6.0 | 0.0 | 0.00 | 0.00 | 0.00 | 78 | 1059.0 |
| 20260504180529 | 52 | 22 | 2.0 | 0.0 | 0.00 | 0.00 | 0.00 | 78 | 1059.0 |
| 20260504180423 | 52 | 22 | 5.0 | 0.0 | 0.00 | 0.00 | 0.00 | 77 | 1059.1 |
| 20260504180317 | 52 | 22 | 8.0 | 0.0 | 0.00 | 0.00 | 0.00 | 77 | 1059.2 |
| 20260504180212 | 52 | 22 | 6.0 | 0.0 | 0.00 | 0.00 | 0.00 | 77 | 1059.0 |
| 20260504180105 | 52 | 22 | 5.0 | 0.0 | 0.00 | 0.00 | 0.00 | 77 | 1059.1 |
| 20260504180000 | 52 | 0 | 9.0 | 0.0 | 0.00 | 0.02 | 0.00 | 77 | 1059.1 |
| 20260504175852 | 52 | 22 | 2.0 | 0.0 | 0.00 | 0.02 | 0.00 | 77 | 1059.1 |
| 20260504175731 | 53 | 22 | 4.0 | 0.0 | 0.00 | 0.02 | 0.00 | 77 | 1059.2 |
| 20260504175625 | 53 | 45 | 4.0 | 0.0 | 0.00 | 0.02 | 0.00 | 77 | 1059.2 |
| 20260504175513 | 53 | 45 | 6.0 | 0.0 | 0.00 | 0.02 | 0.00 | 77 | 1059.2 |
| 20260504175404 | 53 | 22 | 3.0 | 0.0 | 0.00 | 0.02 | 0.00 | 76 | 1059.2 |
| 20260504175251 | 53 | 22 | 7.0 | 0.0 | 0.00 | 0.02 | 0.00 | 76 | 1059.2 |
| 20260504175146 | 53 | 22 | 6.0 | 0.0 | 0.00 | 0.02 | 0.00 | 76 | 1059.3 |
| 20260504175039 | 53 | 45 | 7.0 | 0.0 | 0.00 | 0.02 | 0.00 | 76 | 1059.3 |
| 20260504174934 | 53 | 0 | 6.0 | 0.0 | 0.00 | 0.02 | 0.00 | 76 | 1059.3 |
| 20260504174828 | 53 | 45 | 8.0 | 0.0 | 0.00 | 0.02 | 0.00 | 76 | 1059.2 |
| 20260504174656 | 53 | 0 | 2.0 | 0.0 | 0.00 | 0.02 | 0.00 | 76 | 1059.3 |
| 20260504174543 | 53 | 22 | 4.0 | 0.0 | 0.00 | 0.02 | 0.00 | 76 | 1059.3 |
| 20260504174437 | 53 | 0 | 9.0 | 0.0 | 0.00 | 0.02 | 0.00 | 76 | 1059.4 |
| 20260504174332 | 53 | 45 | 8.0 | 0.0 | 0.00 | 0.02 | 0.00 | 76 | 1059.3 |
| 20260504174212 | 53 | 337 | 4.0 | 0.0 | 0.00 | 0.02 | 0.00 | 76 | 1059.4 |
| 20260504174058 | 53 | 0 | 3.0 | 0.0 | 0.00 | 0.02 | 0.00 | 76 | 1059.3 |
| 20260504173945 | 53 | 45 | 9.0 | 0.0 | 0.00 | 0.02 | 0.00 | 76 | 1059.3 |
| 20260504173839 | 53 | 45 | 8.0 | 0.0 | 0.00 | 0.02 | 0.00 | 76 | 1059.4 |
| 20260504173710 | 53 | 22 | 5.0 | 0.0 | 0.00 | 0.02 | 0.00 | 76 | 1059.4 |
| 20260504173557 | 53 | 0 | 9.0 | 0.0 | 0.00 | 0.02 | 0.00 | 76 | 1059.3 |
| 20260504173436 | 53 | 0 | 3.0 | 0.0 | 0.00 | 0.02 | 0.00 | 76 | 1059.3 |
| 20260504173323 | 53 | 0 | 5.0 | 0.0 | 0.00 | 0.02 | 0.00 | 76 | 1059.3 |
| 20260504173209 | 53 | 45 | 5.0 | 0.0 | 0.00 | 0.02 | 0.00 | 76 | 1059.3 |
| 20260504173041 | 53 | 45 | 5.0 | 0.0 | 0.00 | 0.02 | 0.00 | 75 | 1059.2 |
| 20260504172936 | 53 | 67 | 6.0 | 0.0 | 0.00 | 0.02 | 0.00 | 75 | 1059.2 |
| 20260504172814 | 54 | 22 | 7.0 | 0.0 | 0.00 | 0.02 | 0.00 | 75 | 1059.2 |
| 20260504172700 | 54 | 45 | 9.0 | 0.0 | 0.00 | 0.02 | 0.00 | 75 | 1059.2 |
| 20260504172549 | 54 | 22 | 7.0 | 0.0 | 0.00 | 0.02 | 0.00 | 75 | 1059.2 |
| 20260504172443 | 54 | 0 | 3.0 | 0.0 | 0.00 | 0.02 | 0.00 | 74 | 1059.2 |
| 20260504172321 | 54 | 22 | 7.0 | 0.0 | 0.00 | 0.02 | 0.00 | 74 | 1059.1 |
| 20260504172200 | 54 | 22 | 7.0 | 0.0 | 0.00 | 0.02 | 0.00 | 74 | 1059.1 |
| 20260504172047 | 54 | 0 | 5.0 | 0.0 | 0.00 | 0.02 | 0.00 | 74 | 1059.1 |
| 20260504171942 | 54 | 22 | 7.0 | 0.0 | 0.00 | 0.02 | 0.00 | 74 | 1059.1 |
| 20260504171829 | 54 | 45 | 9.0 | 0.0 | 0.00 | 0.02 | 0.00 | 74 | 1059.1 |
| 20260504171708 | 55 | 22 | 3.0 | 0.0 | 0.00 | 0.02 | 0.00 | 74 | 1059.1 |
| 20260504171539 | 55 | 22 | 5.0 | 0.0 | 0.00 | 0.02 | 0.00 | 73 | 1059.1 |
| 20260504171425 | 55 | 0 | 6.0 | 0.0 | 0.00 | 0.02 | 0.00 | 74 | 1059.1 |
| 20260504171312 | 55 | 45 | 8.0 | 0.0 | 0.00 | 0.02 | 0.00 | 74 | 1059.1 |
| 20260504171158 | 55 | 0 | 3.0 | 0.0 | 0.00 | 0.02 | 0.00 | 74 | 1059.1 |
| 20260504171045 | 55 | 0 | 2.0 | 0.0 | 0.00 | 0.02 | 0.00 | 74 | 1059.1 |
| 20260504170933 | 55 | 22 | 4.0 | 0.0 | 0.00 | 0.02 | 0.00 | 73 | 1059.1 |
| 20260504170830 | 55 | 67 | 6.0 | 0.0 | 0.00 | 0.02 | 0.00 | 73 | 1059.1 |
| 20260504170723 | 55 | 22 | 0.0 | 0.0 | 0.00 | 0.02 | 0.00 | 73 | 1059.1 |
| 20260504170610 | 55 | 0 | 2.0 | 0.0 | 0.00 | 0.02 | 0.00 | 73 | 1059.1 |
| 20260504170505 | 55 | 22 | 6.0 | 0.0 | 0.00 | 0.02 | 0.00 | 73 | 1059.1 |
| 20260504170400 | 55 | 0 | 8.0 | 0.0 | 0.00 | 0.02 | 0.00 | 73 | 1059.0 |
| 20260504170255 | 55 | 22 | 5.0 | 0.0 | 0.00 | 0.02 | 0.00 | 73 | 1059.1 |
| 20260504170141 | 55 | 22 | 4.0 | 0.0 | 0.00 | 0.02 | 0.00 | 73 | 1059.0 |
| 20260504160349 | 57 | 22 | 5.0 | 0.0 | 0.00 | 0.02 | 0.00 | 70 | 1059.2 |
| 20260504160243 | 57 | 90 | 3.0 | 0.0 | 0.00 | 0.02 | 0.00 | 71 | 1059.2 |
| 20260504160137 | 57 | 45 | 3.0 | 0.0 | 0.00 | 0.02 | 0.00 | 70 | 1059.2 |